M I D A S
Marine Information and Data Acquisition System
Tripno 1242 of the Zeeleeuw from 2007-03-29 05:00:32 to 2007-03-29 07:51:53
Back to CruiseResearch ActivitiesStationsMapUnderway DataData graphs

EquipmentUnitsComment
TimeDGPSUTC
LatitudeDGPSDM.mWGS84
LongitudeDGPSDM.mWGS84
TemperatureSBE03/SBE38deg celciusITS90
ConductivitySBE21S/mITS90
SalinitySBE21 Practical Salinity Units
ChlorophylAChelsea fluorimeterg/lCalibrated in Aceton
Missing or incorrect values are displayed as -999
Sea surface data collected by the RV Zeeleeuw from 2007-03-29 05:01:44 to 2007-03-29 07:56:21
                                                                                    Next 1000 lines
Time Latitude Longitude Temperature Conductivity Salinity ChlorophylA
2007-03-29 05:01:55 51°13.601 2°56.097 15.942 0.063032 0.357498 -2.871232
2007-03-29 05:01:59 51°13.601 2°56.096 15.9205 0.063032 0.357498 -2.871232
2007-03-29 05:02:04 51°13.602 2°56.094 15.8719 0.063032 0.357498 -2.871232
2007-03-29 05:02:09 51°13.602 2°56.091 15.8496 0.063135 0.358108 -2.871232
2007-03-29 05:02:15 51°13.604 2°56.087 15.8617 0.063135 0.358108 -2.871232
2007-03-29 05:02:19 51°13.605 2°56.083 15.8926 0.063032 0.357506 -2.871232
2007-03-29 05:02:24 51°13.606 2°56.079 15.9837 0.063135 0.358116 -2.871232
2007-03-29 05:02:29 51°13.607 2°56.073 16.0122 0.063135 0.358116 -2.871232
2007-03-29 05:02:34 51°13.609 2°56.068 16.0336 0.063032 0.357521 -2.871232
2007-03-29 05:02:40 51°13.611 2°56.061 16.006 0.063032 0.357521 -2.871232
2007-03-29 05:02:44 51°13.612 2°56.056 16.0008 0.063135 0.35813 -2.871232
2007-03-29 05:02:49 51°13.614 2°56.049 16.0049 0.063135 0.358138 -2.871232
2007-03-29 05:02:54 51°13.616 2°56.042 15.9858 0.063135 0.358138 -2.871232
2007-03-29 05:03:00 51°13.618 2°56.033 15.9601 0.063135 0.358138 -2.871232
2007-03-29 05:03:05 51°13.62 2°56.026 15.948 0.063135 0.358145 -2.871232
2007-03-29 05:03:09 51°13.622 2°56.02 15.9367 0.063032 0.357543 -2.871232
2007-03-29 05:03:14 51°13.624 2°56.012 15.9552 0.063135 0.358145 -2.871232
2007-03-29 05:03:19 51°13.626 2°56.004 15.9652 0.063135 0.358153 -2.871232
2007-03-29 05:03:25 51°13.628 2°55.994 15.9941 0.063032 0.357557 -2.871232
2007-03-29 05:03:29 51°13.629 2°55.988 16.0101 0.063032 0.357557 -2.871232
2007-03-29 05:03:34 51°13.632 2°55.979 16.0042 0.063135 0.35816 -2.871232
2007-03-29 05:03:39 51°13.634 2°55.971 16.0091 0.063135 0.35816 -2.871232
2007-03-29 05:03:44 51°13.637 2°55.962 16.0094 0.063032 0.357565 -2.871232
2007-03-29 05:03:49 51°13.64 2°55.953 16.0098 0.063032 0.357565 -2.871232
2007-03-29 05:03:54 51°13.643 2°55.944 16.0099 0.063032 0.357572 -2.871232
2007-03-29 05:03:59 51°13.646 2°55.935 16.0208 0.063032 0.357572 -2.871232
2007-03-29 05:04:04 51°13.65 2°55.926 16.0172 0.063135 0.358175 -2.871232
2007-03-29 05:04:09 51°13.653 2°55.917 16.0266 0.063032 0.35758 -2.871232
2007-03-29 05:04:14 51°13.657 2°55.908 16.0279 0.063032 0.35758 -2.871232
2007-03-29 05:04:19 51°13.661 2°55.899 16.0361 0.063135 0.35819 -2.871232
2007-03-29 05:04:24 51°13.664 2°55.89 16.0362 0.063032 0.357587 -2.871232
2007-03-29 05:04:29 51°13.668 2°55.881 16.0386 0.063032 0.357587 -2.871232
2007-03-29 05:04:35 51°13.672 2°55.871 16.046 0.063032 0.357594 -2.871232
2007-03-29 05:04:39 51°13.675 2°55.865 16.0394 0.063135 0.358204 -2.871232
2007-03-29 05:04:44 51°13.678 2°55.857 16.0369 0.063032 0.357602 -2.871232
2007-03-29 05:04:49 51°13.682 2°55.849 16.0298 0.063032 0.357609 -2.871232
2007-03-29 05:04:54 51°13.685 2°55.84 16.0392 0.063032 0.357616 -2.871232
2007-03-29 05:04:59 51°13.689 2°55.832 16.0423 0.063032 0.357616 -2.871232
2007-03-29 05:05:05 51°13.694 2°55.822 16.0358 0.063032 0.357616 -2.871232
2007-03-29 05:05:09 51°13.696 2°55.816 16.0433 0.063032 0.357616 -2.871232
2007-03-29 05:05:14 51°13.7 2°55.808 16.0575 0.063032 0.357624 -2.871232
2007-03-29 05:05:20 51°13.704 2°55.799 16.0557 0.063032 0.357624 -2.871232
2007-03-29 05:05:25 51°13.707 2°55.791 16.0548 0.063032 0.357631 -2.871232
2007-03-29 05:05:29 51°13.71 2°55.786 16.0559 0.063032 0.357631 -2.871232
2007-03-29 05:05:34 51°13.712 2°55.778 16.0594 0.063135 0.358241 -2.871232
2007-03-29 05:05:39 51°13.715 2°55.772 16.0518 0.063032 0.357639 -2.871232
2007-03-29 05:05:45 51°13.719 2°55.764 16.0556 0.063032 0.357639 -2.871232
2007-03-29 05:05:49 51°13.721 2°55.759 16.051 0.063032 0.357646 -2.871232
2007-03-29 05:05:54 51°13.723 2°55.753 16.0501 0.063135 0.358249 -2.871232
2007-03-29 05:05:59 51°13.725 2°55.748 16.0556 0.063135 0.358249 -2.871232
2007-03-29 05:06:04 51°13.726 2°55.743 16.0751 0.063032 0.357653 -2.871232
2007-03-29 05:06:09 51°13.728 2°55.739 16.0857 0.063032 0.357661 -2.871232
2007-03-29 05:06:14 51°13.729 2°55.736 16.0938 0.063032 0.357661 -2.871232
2007-03-29 05:06:19 51°13.73 2°55.734 16.0967 0.063032 0.357668 -2.871232
2007-03-29 05:06:24 51°13.731 2°55.733 16.1116 0.063032 0.357675 -2.871232
2007-03-29 05:06:29 51°13.731 2°55.733 16.0672 0.063032 0.357675 -2.871232
2007-03-29 05:06:34 51°13.731 2°55.733 16.0776 0.063032 0.357683 -2.871232
2007-03-29 05:06:39 51°13.732 2°55.733 16.0111 0.063135 0.358293 -2.871232
2007-03-29 05:06:44 51°13.732 2°55.734 15.9818 0.063032 0.35769 -2.871232
2007-03-29 05:06:49 51°13.732 2°55.733 15.9556 0.063032 0.357698 -2.871232
2007-03-29 05:06:54 51°13.733 2°55.733 15.9603 0.063032 0.357698 -2.871232
2007-03-29 05:06:59 51°13.733 2°55.732 15.9476 0.063032 0.357698 -2.871232
2007-03-29 05:07:04 51°13.733 2°55.731 15.9814 0.063032 0.357698 -2.871232
2007-03-29 05:07:09 51°13.733 2°55.73 15.9868 0.063032 0.357705 -2.871232
2007-03-29 05:07:14 51°13.733 2°55.728 16.0013 0.063032 0.357712 -2.871232
2007-03-29 05:07:19 51°13.733 2°55.726 15.9995 0.063032 0.357712 -2.871232
2007-03-29 05:07:24 51°13.733 2°55.723 16.0879 0.063032 0.357712 -2.871232
2007-03-29 05:07:29 51°13.733 2°55.721 16.071 0.063032 0.357712 -2.871232
2007-03-29 05:07:34 51°13.733 2°55.718 16.0689 0.063032 0.35772 -2.871232
2007-03-29 05:07:40 51°13.733 2°55.715 16.0606 0.063032 0.35772 -2.871232
2007-03-29 05:07:45 51°13.733 2°55.713 16.0689 0.063032 0.35772 -2.871232
2007-03-29 05:07:49 51°13.733 2°55.712 16.0682 0.063032 0.357727 -2.871232
2007-03-29 05:07:54 51°13.733 2°55.711 16.0724 0.063032 0.357727 -2.871232
2007-03-29 05:07:59 51°13.733 2°55.71 16.0717 0.063032 0.357727 -2.871232
2007-03-29 05:08:05 51°13.733 2°55.71 16.0768 0.063032 0.357727 -2.871232
2007-03-29 05:08:09 51°13.734 2°55.71 16.0741 0.063032 0.357734 -2.871232
2007-03-29 05:08:14 51°13.734 2°55.711 16.1264 0.063032 0.357742 -2.871232
2007-03-29 05:08:19 51°13.735 2°55.712 16.0867 0.063032 0.357749 -2.871232
2007-03-29 05:08:24 51°13.736 2°55.713 16.0828 0.063032 0.357757 -2.871232
2007-03-29 05:08:29 51°13.736 2°55.713 16.0751 0.063032 0.357757 -2.871232
2007-03-29 05:08:34 51°13.736 2°55.713 16.0705 0.063032 0.357757 -2.871232
2007-03-29 05:08:39 51°13.736 2°55.712 15.9917 0.063032 0.357764 -2.871232
2007-03-29 05:08:44 51°13.736 2°55.711 16.0378 0.063032 0.357771 -2.871232
2007-03-29 05:08:49 51°13.735 2°55.71 16.0562 0.063032 0.357771 -2.871232
2007-03-29 05:08:54 51°13.734 2°55.709 16.0637 0.063032 0.357779 -2.871232
2007-03-29 05:08:59 51°13.733 2°55.707 16.0957 0.063032 0.357779 -2.871232
2007-03-29 05:09:04 51°13.732 2°55.706 16.0839 0.063032 0.357779 -2.871232
2007-03-29 05:09:09 51°13.731 2°55.704 16.0841 0.063032 0.357779 -2.871232
2007-03-29 05:09:14 51°13.73 2°55.704 16.086 0.063032 0.357779 -2.871232
2007-03-29 05:09:20 51°13.729 2°55.703 16.0865 0.063032 0.357786 -2.871232
2007-03-29 05:09:24 51°13.729 2°55.702 16.0989 0.063032 0.357793 -2.871232
2007-03-29 05:09:29 51°13.729 2°55.702 16.0923 0.063032 0.357793 -2.871232
2007-03-29 05:09:34 51°13.73 2°55.702 16.0916 0.063032 0.357793 -2.871232
2007-03-29 05:09:39 51°13.73 2°55.702 16.0899 0.063032 0.357801 -2.871232
2007-03-29 05:09:45 51°13.731 2°55.702 16.0894 0.063032 0.357808 -2.871232
2007-03-29 05:09:49 51°13.732 2°55.702 16.0879 0.063032 0.357808 -2.871232
2007-03-29 05:09:54 51°13.733 2°55.702 16.1117 0.063032 0.357816 -2.871232
2007-03-29 05:09:59 51°13.734 2°55.701 16.1197 0.063032 0.357816 -2.871232
2007-03-29 05:10:04 51°13.735 2°55.701 16.1654 0.063032 0.357823 -2.871232
2007-03-29 05:10:09 51°13.736 2°55.701 16.211 0.063032 0.35783 -2.871232
2007-03-29 05:10:14 51°13.738 2°55.7 16.1902 0.063032 0.35783 -2.871232
2007-03-29 05:10:19 51°13.741 2°55.698 16.1743 0.063032 0.357838 -2.871232
2007-03-29 05:10:24 51°13.744 2°55.697 16.2004 0.063032 0.357838 -2.871232
2007-03-29 05:10:29 51°13.747 2°55.694 16.1742 0.063032 0.357838 -2.871232
2007-03-29 05:10:34 51°13.751 2°55.692 16.1983 0.063032 0.357838 -2.871232
2007-03-29 05:10:39 51°13.756 2°55.689 16.1683 0.063032 0.357845 -2.871232
2007-03-29 05:10:44 51°13.761 2°55.685 16.1501 0.063032 0.357845 -2.871232
2007-03-29 05:10:49 51°13.767 2°55.681 16.0546 0.063032 0.357845 -2.871232
2007-03-29 05:10:54 51°13.773 2°55.677 16.0616 0.063032 0.357853 -2.871232
2007-03-29 05:10:59 51°13.78 2°55.673 16.1348 0.063032 0.357853 -2.871232
2007-03-29 05:11:04 51°13.787 2°55.668 16.0868 0.063032 0.357853 -2.871232
2007-03-29 05:11:09 51°13.795 2°55.663 16.1041 0.063032 0.35786 -2.871232
2007-03-29 05:11:14 51°13.802 2°55.658 16.108 0.063032 0.357867 -2.871232
2007-03-29 05:11:19 51°13.81 2°55.652 15.9757 0.063032 0.357867 -2.871232
2007-03-29 05:11:24 51°13.818 2°55.646 16.0057 0.063032 0.357875 -2.871232
2007-03-29 05:11:29 51°13.827 2°55.641 16.029 0.063032 0.357875 -2.871232
2007-03-29 05:11:34 51°13.836 2°55.635 15.9962 0.063032 0.357882 -2.871232
2007-03-29 05:11:39 51°13.845 2°55.629 15.9986 0.063032 0.357882 -2.871232
2007-03-29 05:11:44 51°13.854 2°55.623 15.9775 0.063032 0.357889 -2.871232
2007-03-29 05:11:49 51°13.863 2°55.617 15.9847 0.063032 0.357897 -2.871232
2007-03-29 05:11:54 51°13.872 2°55.611 15.9992 0.063032 0.357897 -2.871232
2007-03-29 05:11:59 51°13.881 2°55.605 16.018 0.063032 0.357897 -2.871232
2007-03-29 05:12:04 51°13.891 2°55.599 16.0223 0.063032 0.357904 -2.871232
2007-03-29 05:12:09 51°13.9 2°55.593 15.915 0.062929 0.357301 -2.871232
2007-03-29 05:12:14 51°13.91 2°55.587 15.9382 0.063032 0.357904 -2.871232
2007-03-29 05:12:19 51°13.92 2°55.581 15.9808 0.063032 0.357912 -2.871232
2007-03-29 05:12:24 51°13.929 2°55.575 16.0819 0.063032 0.357919 -2.871232
2007-03-29 05:12:29 51°13.939 2°55.569 16.0454 0.063032 0.357919 -2.871232
2007-03-29 05:12:34 51°13.949 2°55.562 16.0302 0.063032 0.357919 -2.871232
2007-03-29 05:12:39 51°13.959 2°55.557 16.0537 0.063032 0.357926 -2.871232
2007-03-29 05:12:44 51°13.969 2°55.55 16.0685 0.063032 0.357934 -2.871232
2007-03-29 05:12:49 51°13.979 2°55.544 16.0582 0.063032 0.357941 -2.871232
2007-03-29 05:12:54 51°13.989 2°55.538 16.0506 0.063032 0.357941 -2.871232
2007-03-29 05:12:59 51°13.998 2°55.532 16.0198 0.063032 0.357941 -2.871232
2007-03-29 05:13:04 51°14.008 2°55.526 16.097 0.063032 0.357949 -2.871232
2007-03-29 05:13:09 51°14.018 2°55.519 16.0766 0.063032 0.357956 -2.871232
2007-03-29 05:13:14 51°14.028 2°55.513 16.0796 0.063032 0.357963 -2.871232
2007-03-29 05:13:19 51°14.038 2°55.507 16.0707 0.063032 0.357963 -2.871232
2007-03-29 05:13:24 51°14.048 2°55.5 16.0714 0.063032 0.357971 -2.871232
2007-03-29 05:13:29 51°14.058 2°55.493 16.0728 0.063032 0.357971 -2.871232
2007-03-29 05:13:34 51°14.068 2°55.486 16.0929 0.063032 0.357971 -2.871232
2007-03-29 05:13:39 51°14.077 2°55.479 15.9311 0.063032 0.357978 -2.871232
2007-03-29 05:13:44 51°14.087 2°55.472 16.012 0.063032 0.357978 -2.871232
2007-03-29 05:13:49 51°14.097 2°55.465 16.0481 0.063032 0.357978 -2.871232
2007-03-29 05:13:54 51°14.106 2°55.458 16.1191 0.063032 0.357978 -2.871232
2007-03-29 05:13:59 51°14.116 2°55.451 16.092 0.063032 0.357978 -2.871232
2007-03-29 05:14:04 51°14.126 2°55.443 16.1448 0.063032 0.357978 -2.871232
2007-03-29 05:14:09 51°14.135 2°55.436 16.119 0.063032 0.357985 -2.871232
2007-03-29 05:14:14 51°14.145 2°55.428 16.1441 0.063032 0.357985 -2.871232
2007-03-29 05:14:19 51°14.155 2°55.42 16.1118 0.063032 0.357993 -2.871232
2007-03-29 05:14:24 51°14.165 2°55.411 16.1622 0.063032 0.358 -2.871232
2007-03-29 05:14:29 51°14.175 2°55.402 16.1171 0.063032 0.358 -2.871232
2007-03-29 05:14:34 51°14.185 2°55.393 16.1662 0.063032 0.358 -2.871232
2007-03-29 05:14:39 51°14.195 2°55.382 16.1958 0.063032 0.358008 -2.871232
2007-03-29 05:14:44 51°14.205 2°55.371 16.2457 0.063032 0.358015 -2.871232
2007-03-29 05:14:49 51°14.214 2°55.359 16.2112 0.063032 0.358022 -2.871232
2007-03-29 05:14:54 51°14.224 2°55.347 16.1119 0.063032 0.35803 -2.871232
2007-03-29 05:14:59 51°14.233 2°55.334 16.0951 0.063032 0.35803 -2.871232
2007-03-29 05:15:04 51°14.242 2°55.32 16.0536 0.063032 0.35803 -2.871232
2007-03-29 05:15:09 51°14.252 2°55.306 16.1522 0.063032 0.35803 -2.871232
2007-03-29 05:15:14 51°14.261 2°55.29 16.1205 0.063032 0.358045 -2.871232
2007-03-29 05:15:19 51°14.27 2°55.275 16.1253 0.063032 0.358045 -2.871232
2007-03-29 05:15:24 51°14.278 2°55.259 16.1473 0.063032 0.358045 -2.871232
2007-03-29 05:15:29 51°14.287 2°55.242 16.1578 0.063032 0.358045 -2.871232
2007-03-29 05:15:34 51°14.295 2°55.224 16.0821 0.063032 0.358052 -2.871232
2007-03-29 05:15:39 51°14.304 2°55.207 16.1387 0.063032 0.358059 -2.871232
2007-03-29 05:15:44 51°14.313 2°55.188 15.9346 0.063032 0.358059 -2.871232
2007-03-29 05:15:49 51°14.321 2°55.17 16.142 0.063032 0.358059 -2.871232
2007-03-29 05:15:54 51°14.33 2°55.15 16.0591 0.063032 0.358067 -2.871232
2007-03-29 05:15:59 51°14.338 2°55.13 15.9622 0.063032 0.358067 -2.871232
2007-03-29 05:16:04 51°14.347 2°55.11 15.8645 0.063032 0.358074 -2.871232
2007-03-29 05:16:09 51°14.357 2°55.09 15.8366 0.063032 0.358074 -2.871232
2007-03-29 05:16:14 51°14.367 2°55.069 16.018 0.063032 0.358074 -2.871232
2007-03-29 05:16:19 51°14.377 2°55.048 15.9445 0.063032 0.358082 -2.871232
2007-03-29 05:16:25 51°14.388 2°55.022 16.0762 0.063032 0.358082 -2.871232
2007-03-29 05:16:30 51°14.398 2°55 16.21 0.063032 0.358082 -2.871232
2007-03-29 05:16:34 51°14.405 2°54.981 16.21 0.063032 0.358096 -2.871232
2007-03-29 05:16:40 51°14.414 2°54.95 16.1132 0.063032 0.358111 -2.871232
2007-03-29 05:16:45 51°14.421 2°54.925 15.9354 0.062929 0.357515 -2.871232
2007-03-29 05:16:50 51°14.429 2°54.899 15.8802 0.063032 0.358119 -2.871232
2007-03-29 05:16:54 51°14.435 2°54.878 15.827 0.063032 0.358119 -2.871232
2007-03-29 05:17:00 51°14.445 2°54.846 16.0377 0.063032 0.358119 -2.871232
2007-03-29 05:17:05 51°14.452 2°54.82 15.9946 0.063032 0.358119 -2.871232
2007-03-29 05:17:10 51°14.46 2°54.794 15.9349 0.063032 0.358119 -2.871232
2007-03-29 05:17:14 51°14.467 2°54.773 15.9362 0.062929 0.357515 -2.871232
2007-03-29 05:17:20 51°14.477 2°54.741 15.9702 0.062929 0.357515 -2.871232
2007-03-29 05:17:25 51°14.486 2°54.715 16.0633 0.062929 0.357515 -2.871232
2007-03-29 05:17:29 51°14.493 2°54.695 15.7387 0.062929 0.357515 -2.871232
2007-03-29 05:17:35 51°14.506 2°54.666 15.8002 0.063032 0.358119 -2.871232
2007-03-29 05:17:40 51°14.518 2°54.645 15.5771 0.062929 0.357515 -2.871232
2007-03-29 05:17:45 51°14.532 2°54.626 15.4032 0.062929 0.357515 -2.871232
2007-03-29 05:17:50 51°14.546 2°54.609 15.5977 0.062929 0.357522 -2.871232
2007-03-29 05:17:54 51°14.557 2°54.595 15.5173 0.062929 0.35753 -2.871232
2007-03-29 05:18:00 51°14.575 2°54.576 15.535 0.062929 0.35753 -2.871232
2007-03-29 05:18:05 51°14.591 2°54.562 15.5844 0.062929 0.357545 -2.871232
2007-03-29 05:18:09 51°14.603 2°54.551 15.6544 0.063032 0.358156 -2.871232
2007-03-29 05:18:14 51°14.619 2°54.538 15.7097 0.063032 0.35817 -2.871232
2007-03-29 05:18:19 51°14.634 2°54.524 15.7234 0.063032 0.358178 -2.871232
2007-03-29 05:18:24 51°14.65 2°54.51 15.7553 0.062929 0.357582 -2.871232
2007-03-29 05:18:29 51°14.666 2°54.496 15.7575 0.062929 0.357582 -2.871232
2007-03-29 05:18:34 51°14.681 2°54.482 15.7411 0.063032 0.358193 -2.871232
2007-03-29 05:18:40 51°14.7 2°54.465 15.7293 0.063032 0.3582 -2.871232
2007-03-29 05:18:44 51°14.712 2°54.453 15.6914 0.062929 0.357596 -2.871232
2007-03-29 05:18:49 51°14.728 2°54.44 15.6845 0.062929 0.357596 -2.871232
2007-03-29 05:18:54 51°14.744 2°54.427 15.7387 0.063032 0.358193 -2.871232
2007-03-29 05:18:59 51°14.76 2°54.415 15.6906 0.063032 0.358193 -2.871232
2007-03-29 05:19:04 51°14.777 2°54.404 15.6936 0.062929 0.357596 -2.871232
2007-03-29 05:19:09 51°14.793 2°54.394 15.705 0.063032 0.3582 -2.871232
2007-03-29 05:19:14 51°14.81 2°54.385 15.7624 0.062929 0.357596 -2.871232
2007-03-29 05:19:20 51°14.83 2°54.372 15.8095 0.062929 0.357604 -2.871232
2007-03-29 05:19:24 51°14.843 2°54.363 15.8603 0.062929 0.357611 -2.871232
2007-03-29 05:19:29 51°14.858 2°54.35 15.8858 0.062929 0.357611 -2.871232
2007-03-29 05:19:34 51°14.873 2°54.334 15.938 0.062929 0.357626 -2.871232
2007-03-29 05:19:39 51°14.887 2°54.317 15.8696 0.062929 0.357648 -2.871232
2007-03-29 05:19:44 51°14.9 2°54.297 15.8643 0.062929 0.357655 -2.871232
2007-03-29 05:19:49 51°14.912 2°54.276 15.808 0.062929 0.357655 -2.871232
2007-03-29 05:19:54 51°14.924 2°54.255 15.8326 0.062929 0.357663 -2.871232
2007-03-29 05:19:59 51°14.934 2°54.232 15.8148 0.062929 0.357663 -2.871232
2007-03-29 05:20:04 51°14.944 2°54.209 15.8195 0.062929 0.35767 -2.871232
2007-03-29 05:20:10 51°14.956 2°54.18 15.8549 0.063032 0.358274 -2.871232
2007-03-29 05:20:14 51°14.963 2°54.16 15.8069 0.062929 0.35767 -2.871232
2007-03-29 05:20:20 51°14.973 2°54.13 15.7932 0.062929 0.35767 -2.871232
2007-03-29 05:20:25 51°14.982 2°54.104 15.7707 0.062929 0.35767 -2.871232
2007-03-29 05:20:29 51°14.988 2°54.084 15.751 0.062929 0.35767 -2.871232
2007-03-29 05:20:34 51°14.997 2°54.058 15.7365 0.062929 0.35767 -2.871232
2007-03-29 05:20:40 51°15.007 2°54.027 15.7712 0.062929 0.35767 -2.871232
2007-03-29 05:20:45 51°15.016 2°54.001 15.7594 0.062929 0.35767 -2.871232
2007-03-29 05:20:50 51°15.025 2°53.975 15.7949 0.062929 0.357678 -2.871232
2007-03-29 05:20:54 51°15.032 2°53.954 15.773 0.062929 0.357678 -2.871232
2007-03-29 05:21:00 51°15.043 2°53.923 15.7523 0.062929 0.357678 -2.871232
2007-03-29 05:21:05 51°15.052 2°53.898 15.7776 0.062929 0.357685 -2.871232
2007-03-29 05:21:10 51°15.061 2°53.872 15.7806 0.062929 0.357692 -2.871232
2007-03-29 05:21:14 51°15.068 2°53.851 15.8558 0.062929 0.3577 -2.871232
2007-03-29 05:21:20 51°15.078 2°53.82 15.8313 0.062929 0.357715 -2.871232
2007-03-29 05:21:24 51°15.085 2°53.798 15.8023 0.063032 0.358326 -2.871232
2007-03-29 05:21:29 51°15.092 2°53.771 15.8042 0.063032 0.358326 -2.871232
2007-03-29 05:21:34 51°15.1 2°53.744 15.8279 0.062929 0.357737 -2.871232
2007-03-29 05:21:40 51°15.108 2°53.711 15.7539 0.062929 0.357737 -2.871232
2007-03-29 05:21:45 51°15.115 2°53.683 15.8164 0.062929 0.357737 -2.871232
2007-03-29 05:21:49 51°15.121 2°53.661 15.7866 0.062929 0.357737 -2.871232
2007-03-29 05:21:54 51°15.128 2°53.633 15.759 0.062929 0.357737 -2.871232
2007-03-29 05:22:00 51°15.136 2°53.6 15.8183 0.062929 0.357737 -2.871232
2007-03-29 05:22:05 51°15.142 2°53.571 15.8506 0.063032 0.358341 -2.871232
2007-03-29 05:22:09 51°15.146 2°53.548 15.8059 0.062929 0.357737 -2.871232
2007-03-29 05:22:14 51°15.152 2°53.52 15.8602 0.062929 0.357737 -2.871232
2007-03-29 05:22:19 51°15.157 2°53.491 15.7895 0.062929 0.357744 -2.871232
2007-03-29 05:22:24 51°15.162 2°53.461 15.7913 0.062929 0.357752 -2.871232
2007-03-29 05:22:29 51°15.167 2°53.432 15.797 0.062929 0.357752 -2.871232
2007-03-29 05:22:34 51°15.172 2°53.403 15.7811 0.062929 0.357752 -2.871232
2007-03-29 05:22:39 51°15.177 2°53.374 15.7883 0.062929 0.357759 -2.871232
2007-03-29 05:22:44 51°15.182 2°53.344 15.7415 0.062929 0.357766 -2.871232
2007-03-29 05:22:49 51°15.187 2°53.315 15.8113 0.062929 0.357766 -2.871232
2007-03-29 05:22:54 51°15.192 2°53.286 15.8346 0.062929 0.357781 -2.871232
2007-03-29 05:23:00 51°15.197 2°53.25 15.8497 0.062929 0.357781 -2.871232
2007-03-29 05:23:04 51°15.201 2°53.227 15.8187 0.062929 0.357789 -2.871232
2007-03-29 05:23:09 51°15.205 2°53.197 15.8112 0.062929 0.357803 -2.871232
2007-03-29 05:23:14 51°15.209 2°53.167 15.8213 0.062929 0.357803 -2.871232
2007-03-29 05:23:19 51°15.213 2°53.138 15.8053 0.062929 0.357811 -2.871232
2007-03-29 05:23:25 51°15.218 2°53.102 15.8088 0.062929 0.357811 -2.871232
2007-03-29 05:23:29 51°15.221 2°53.078 15.826 0.062929 0.357811 -2.871232
2007-03-29 05:23:34 51°15.224 2°53.048 15.7936 0.062929 0.357818 -2.871232
2007-03-29 05:23:40 51°15.229 2°53.013 15.7936 0.062929 0.357818 -2.871232
2007-03-29 05:23:44 51°15.232 2°52.989 15.7828 0.062929 0.357818 -2.871232
2007-03-29 05:23:49 51°15.237 2°52.959 15.7915 0.062929 0.357825 -2.871232
2007-03-29 05:23:54 51°15.241 2°52.929 15.8437 0.062929 0.357833 -2.871232
2007-03-29 05:23:59 51°15.245 2°52.9 15.8207 0.062929 0.357833 -2.871232
2007-03-29 05:24:04 51°15.249 2°52.87 15.8758 0.062929 0.357833 -2.871232
2007-03-29 05:24:09 51°15.253 2°52.84 15.8365 0.062929 0.35784 -2.871232
2007-03-29 05:24:14 51°15.257 2°52.81 15.8276 0.062929 0.35784 -2.871232
2007-03-29 05:24:19 51°15.261 2°52.781 15.825 0.062929 0.357848 -2.871232
2007-03-29 05:24:24 51°15.264 2°52.751 15.8318 0.062929 0.357855 -2.871232
2007-03-29 05:24:29 51°15.268 2°52.721 15.8181 0.062929 0.357855 -2.871232
2007-03-29 05:24:34 51°15.272 2°52.691 15.8556 0.062929 0.357862 -2.871232
2007-03-29 05:24:39 51°15.275 2°52.661 15.7895 0.062929 0.35787 -2.871232
2007-03-29 05:24:44 51°15.279 2°52.631 15.8161 0.062929 0.357877 -2.871232
2007-03-29 05:24:49 51°15.283 2°52.601 15.8332 0.062929 0.357877 -2.871232
2007-03-29 05:24:54 51°15.287 2°52.571 15.8635 0.062929 0.357885 -2.871232
2007-03-29 05:24:59 51°15.291 2°52.542 15.8602 0.062929 0.357885 -2.871232
2007-03-29 05:25:04 51°15.295 2°52.512 15.8571 0.062929 0.357892 -2.871232
2007-03-29 05:25:09 51°15.299 2°52.482 15.853 0.062929 0.357899 -2.871232
2007-03-29 05:25:14 51°15.303 2°52.452 15.8732 0.062929 0.357907 -2.871232
2007-03-29 05:25:19 51°15.306 2°52.422 15.8257 0.062929 0.357914 -2.871232
2007-03-29 05:25:24 51°15.31 2°52.392 15.8563 0.062929 0.357922 -2.871232
2007-03-29 05:25:29 51°15.313 2°52.363 15.8179 0.062929 0.357922 -2.871232
2007-03-29 05:25:34 51°15.317 2°52.333 15.8197 0.062929 0.357914 -2.871232
2007-03-29 05:25:40 51°15.322 2°52.297 15.8441 0.062929 0.357922 -2.871232
2007-03-29 05:25:45 51°15.326 2°52.268 15.882 0.062929 0.357922 -2.871232
2007-03-29 05:25:49 51°15.328 2°52.244 15.839 0.062929 0.357922 -2.871232
2007-03-29 05:25:54 51°15.332 2°52.214 15.8212 0.062929 0.357929 -2.871232
2007-03-29 05:25:59 51°15.336 2°52.185 15.8566 0.062929 0.357929 -2.871232
2007-03-29 05:26:04 51°15.34 2°52.155 15.8625 0.062929 0.357929 -2.871232
2007-03-29 05:26:09 51°15.344 2°52.125 15.8592 0.062929 0.357936 -2.871232
2007-03-29 05:26:14 51°15.348 2°52.096 15.8609 0.062929 0.357936 -2.871232
2007-03-29 05:26:19 51°15.352 2°52.066 15.8358 0.062929 0.357944 -2.871232
2007-03-29 05:26:24 51°15.356 2°52.037 15.8716 0.062929 0.357944 -2.871232
2007-03-29 05:26:29 51°15.36 2°52.007 15.8623 0.062929 0.357944 -2.871232
2007-03-29 05:26:34 51°15.364 2°51.978 15.8252 0.062929 0.357951 -2.871232
2007-03-29 05:26:39 51°15.368 2°51.948 15.7928 0.062929 0.357959 -2.871232
2007-03-29 05:26:44 51°15.372 2°51.918 15.8594 0.062929 0.357966 -2.871232
2007-03-29 05:26:49 51°15.375 2°51.889 15.8523 0.062929 0.357974 -2.871232
2007-03-29 05:26:54 51°15.379 2°51.859 15.862 0.062929 0.357981 -2.871232
2007-03-29 05:26:59 51°15.383 2°51.83 15.8563 0.062929 0.357981 -2.871232
2007-03-29 05:27:04 51°15.387 2°51.8 15.8561 0.062929 0.357981 -2.871232
2007-03-29 05:27:09 51°15.391 2°51.771 15.8733 0.062929 0.357988 -2.871232
2007-03-29 05:27:14 51°15.395 2°51.741 15.8401 0.062929 0.357996 -2.871232
2007-03-29 05:27:19 51°15.398 2°51.712 15.8744 0.062929 0.358003 -2.871232
2007-03-29 05:27:24 51°15.402 2°51.682 15.8607 0.062929 0.358003 -2.871232
2007-03-29 05:27:29 51°15.406 2°51.653 15.8706 0.062929 0.358003 -2.871232
2007-03-29 05:27:34 51°15.41 2°51.623 15.8488 0.062929 0.358011 -2.871232
2007-03-29 05:27:39 51°15.413 2°51.594 15.8254 0.062929 0.358011 -2.871232
2007-03-29 05:27:44 51°15.417 2°51.564 15.8607 0.062929 0.358018 -2.871232
2007-03-29 05:27:49 51°15.421 2°51.535 15.861 0.062929 0.358033 -2.871232
2007-03-29 05:27:54 51°15.426 2°51.505 15.8508 0.062929 0.35804 -2.871232
2007-03-29 05:27:59 51°15.43 2°51.476 15.8744 0.062929 0.35804 -2.871232
2007-03-29 05:28:04 51°15.434 2°51.447 15.8674 0.062826 0.357451 -2.871232
2007-03-29 05:28:09 51°15.438 2°51.418 15.8957 0.062929 0.358055 -2.871232
2007-03-29 05:28:14 51°15.442 2°51.388 15.8733 0.062929 0.358062 -2.871232
2007-03-29 05:28:19 51°15.446 2°51.359 15.8419 0.062929 0.358062 -2.871232
2007-03-29 05:28:24 51°15.45 2°51.33 15.8883 0.062929 0.358062 -2.871232
2007-03-29 05:28:29 51°15.454 2°51.301 15.848 0.062929 0.358062 -2.871232
2007-03-29 05:28:34 51°15.457 2°51.272 15.8446 0.062826 0.357458 -2.871232
2007-03-29 05:28:39 51°15.461 2°51.242 15.8462 0.062929 0.358062 -2.871232
2007-03-29 05:28:44 51°15.465 2°51.213 15.8341 0.062929 0.358062 -2.871232
2007-03-29 05:28:49 51°15.469 2°51.184 15.8332 0.062929 0.358062 -2.871232
2007-03-29 05:28:54 51°15.473 2°51.155 15.8683 0.062929 0.358062 -2.871232
2007-03-29 05:28:59 51°15.477 2°51.126 15.8576 0.062929 0.358062 -2.871232
2007-03-29 05:29:04 51°15.481 2°51.097 15.8754 0.062826 0.357465 -2.871232
2007-03-29 05:29:09 51°15.485 2°51.068 15.8805 0.062929 0.358077 -2.871232
2007-03-29 05:29:14 51°15.489 2°51.039 15.8775 0.062929 0.358085 -2.871232
2007-03-29 05:29:19 51°15.493 2°51.01 15.8911 0.062826 0.357488 -2.871232
2007-03-29 05:29:24 51°15.498 2°50.981 15.8848 0.062929 0.358092 -2.871232
2007-03-29 05:29:29 51°15.501 2°50.952 15.877 0.062929 0.358092 -2.871232
2007-03-29 05:29:34 51°15.506 2°50.922 15.8223 0.062929 0.358099 -2.871232
2007-03-29 05:29:39 51°15.509 2°50.894 15.8705 0.062929 0.358107 -2.871232
2007-03-29 05:29:44 51°15.514 2°50.865 15.8817 0.062826 0.35751 -2.871232
2007-03-29 05:29:49 51°15.518 2°50.836 15.8685 0.062929 0.358122 -2.871232
2007-03-29 05:29:54 51°15.522 2°50.807 15.8724 0.062826 0.357525 -2.871232
2007-03-29 05:29:59 51°15.526 2°50.778 15.8532 0.062826 0.357525 -2.871232
2007-03-29 05:30:04 51°15.53 2°50.749 15.8764 0.062826 0.357532 -2.871232
2007-03-29 05:30:09 51°15.534 2°50.72 15.8604 0.062929 0.358137 -2.871232
2007-03-29 05:30:14 51°15.538 2°50.691 15.8825 0.062929 0.358144 -2.871232
2007-03-29 05:30:19 51°15.542 2°50.661 15.8872 0.062929 0.358144 -2.871232
2007-03-29 05:30:24 51°15.546 2°50.632 15.8824 0.062929 0.358151 -2.871232
2007-03-29 05:30:29 51°15.55 2°50.603 15.8703 0.062929 0.358151 -2.871232
2007-03-29 05:30:34 51°15.554 2°50.574 15.8675 0.062929 0.358151 -2.871232
2007-03-29 05:30:39 51°15.558 2°50.545 15.8939 0.062826 0.357554 -2.871232
2007-03-29 05:30:44 51°15.562 2°50.516 15.8361 0.062826 0.357562 -2.871232
2007-03-29 05:30:49 51°15.566 2°50.487 15.8828 0.062929 0.358174 -2.871232
2007-03-29 05:30:54 51°15.57 2°50.458 15.9051 0.062826 0.357569 -2.871232
2007-03-29 05:30:59 51°15.574 2°50.429 15.9102 0.062826 0.357569 -2.871232
2007-03-29 05:31:04 51°15.578 2°50.4 15.8752 0.062826 0.357576 -2.871232
2007-03-29 05:31:09 51°15.582 2°50.371 15.8545 0.062929 0.358181 -2.871232
2007-03-29 05:31:14 51°15.586 2°50.342 15.8713 0.062826 0.357584 -2.871232
2007-03-29 05:31:19 51°15.59 2°50.313 15.8972 0.062826 0.357591 -2.871232
2007-03-29 05:31:24 51°15.594 2°50.284 15.8519 0.062929 0.358203 -2.871232
2007-03-29 05:31:29 51°15.598 2°50.255 15.8698 0.062929 0.358203 -2.871232
2007-03-29 05:31:34 51°15.602 2°50.226 15.8566 0.062826 0.357599 -2.871232
2007-03-29 05:31:39 51°15.606 2°50.197 15.8919 0.062929 0.358211 -2.871232
2007-03-29 05:31:44 51°15.61 2°50.168 15.8816 0.062826 0.357613 -2.871232
2007-03-29 05:31:49 51°15.614 2°50.139 15.8266 0.062826 0.357613 -2.871232
2007-03-29 05:31:54 51°15.618 2°50.11 15.9064 0.062826 0.357621 -2.871232
2007-03-29 05:31:59 51°15.622 2°50.081 15.8816 0.062826 0.357621 -2.871232
2007-03-29 05:32:04 51°15.626 2°50.052 15.8954 0.062929 0.358233 -2.871232
2007-03-29 05:32:09 51°15.63 2°50.022 15.8836 0.062929 0.358233 -2.871232
2007-03-29 05:32:14 51°15.634 2°49.993 15.87 0.062826 0.357636 -2.871232
2007-03-29 05:32:19 51°15.638 2°49.964 15.8856 0.062929 0.358248 -2.871232
2007-03-29 05:32:24 51°15.642 2°49.935 15.8684 0.062826 0.357643 -2.871232
2007-03-29 05:32:29 51°15.645 2°49.906 15.8364 0.062826 0.357643 -2.871232
2007-03-29 05:32:34 51°15.649 2°49.877 15.8806 0.062826 0.35765 -2.871232
2007-03-29 05:32:39 51°15.653 2°49.848 15.8972 0.062826 0.35765 -2.871232
2007-03-29 05:32:45 51°15.658 2°49.813 15.9005 0.062826 0.357658 -2.871232
2007-03-29 05:32:49 51°15.661 2°49.79 15.8592 0.062826 0.357665 -2.871232
2007-03-29 05:32:54 51°15.665 2°49.761 15.9058 0.062826 0.357673 -2.871232
2007-03-29 05:32:59 51°15.67 2°49.732 15.8481 0.062826 0.357673 -2.871232
2007-03-29 05:33:04 51°15.674 2°49.703 15.8726 0.062826 0.357673 -2.871232
2007-03-29 05:33:09 51°15.679 2°49.674 15.8784 0.062826 0.35768 -2.871232
2007-03-29 05:33:14 51°15.684 2°49.645 15.8996 0.062826 0.35768 -2.871232
2007-03-29 05:33:19 51°15.687 2°49.616 15.8997 0.062826 0.357695 -2.871232
2007-03-29 05:33:24 51°15.691 2°49.587 15.8676 0.062826 0.357695 -2.871232
2007-03-29 05:33:29 51°15.695 2°49.558 15.8464 0.062826 0.357695 -2.871232
2007-03-29 05:33:34 51°15.699 2°49.53 15.8744 0.062826 0.357702 -2.871232
2007-03-29 05:33:39 51°15.703 2°49.501 15.8985 0.062826 0.357702 -2.871232
2007-03-29 05:33:44 51°15.707 2°49.472 15.8718 0.062826 0.35771 -2.871232
2007-03-29 05:33:49 51°15.711 2°49.443 15.9076 0.062826 0.35771 -2.871232
2007-03-29 05:33:54 51°15.715 2°49.415 15.8825 0.062826 0.357717 -2.871232
2007-03-29 05:33:59 51°15.719 2°49.386 15.8958 0.062826 0.357717 -2.871232
2007-03-29 05:34:04 51°15.723 2°49.358 15.8625 0.062929 0.358322 -2.871232
2007-03-29 05:34:09 51°15.727 2°49.329 15.8967 0.062826 0.357724 -2.871232
2007-03-29 05:34:14 51°15.731 2°49.3 15.8788 0.062826 0.357732 -2.871232
2007-03-29 05:34:19 51°15.735 2°49.272 15.8918 0.062826 0.357732 -2.871232
2007-03-29 05:34:24 51°15.739 2°49.243 15.9055 0.062826 0.357739 -2.871232
2007-03-29 05:34:30 51°15.744 2°49.208 15.8714 0.062826 0.357739 -2.871232
2007-03-29 05:34:34 51°15.747 2°49.185 15.898 0.062826 0.357747 -2.871232
2007-03-29 05:34:39 51°15.751 2°49.157 15.8848 0.062826 0.357747 -2.871232
2007-03-29 05:34:44 51°15.755 2°49.128 15.8691 0.062826 0.357754 -2.871232
2007-03-29 05:34:49 51°15.759 2°49.099 15.9046 0.062826 0.357754 -2.871232
2007-03-29 05:34:54 51°15.764 2°49.07 15.868 0.062826 0.357769 -2.871232
2007-03-29 05:34:59 51°15.767 2°49.042 15.901 0.062826 0.357769 -2.871232
2007-03-29 05:35:04 51°15.771 2°49.013 15.8881 0.062826 0.357769 -2.871232
2007-03-29 05:35:09 51°15.774 2°48.984 15.8947 0.062826 0.357776 -2.871232
2007-03-29 05:35:14 51°15.778 2°48.955 15.8785 0.062826 0.357784 -2.871232
2007-03-29 05:35:19 51°15.782 2°48.926 15.896 0.062826 0.357784 -2.871232
2007-03-29 05:35:24 51°15.786 2°48.897 15.8515 0.062826 0.357791 -2.871232
2007-03-29 05:35:29 51°15.79 2°48.867 15.8489 0.062826 0.357791 -2.871232
2007-03-29 05:35:34 51°15.794 2°48.839 15.8715 0.062826 0.357791 -2.871232
2007-03-29 05:35:39 51°15.798 2°48.809 15.8984 0.062826 0.357799 -2.871232
2007-03-29 05:35:44 51°15.802 2°48.78 15.8949 0.062826 0.357806 -2.871232
2007-03-29 05:35:49 51°15.806 2°48.751 15.8627 0.062826 0.357806 -2.871232
2007-03-29 05:35:54 51°15.81 2°48.722 15.8605 0.062826 0.357813 -2.871232
2007-03-29 05:35:59 51°15.814 2°48.692 15.9004 0.062826 0.357813 -2.871232
2007-03-29 05:36:04 51°15.818 2°48.663 15.9195 0.062826 0.357821 -2.871232
2007-03-29 05:36:09 51°15.822 2°48.634 15.9009 0.062826 0.357828 -2.871232
2007-03-29 05:36:14 51°15.826 2°48.605 15.9137 0.062826 0.357828 -2.871232
2007-03-29 05:36:19 51°15.83 2°48.575 15.9028 0.062826 0.357836 -2.871232
2007-03-29 05:36:24 51°15.834 2°48.546 15.8459 0.062826 0.357836 -2.871232
2007-03-29 05:36:29 51°15.838 2°48.517 15.8984 0.062826 0.357836 -2.871232
2007-03-29 05:36:34 51°15.842 2°48.487 15.8856 0.062826 0.357843 -2.871232
2007-03-29 05:36:39 51°15.846 2°48.458 15.914 0.062826 0.35785 -2.871232
2007-03-29 05:36:44 51°15.85 2°48.429 15.9054 0.062826 0.35785 -2.871232
2007-03-29 05:36:49 51°15.854 2°48.399 15.9048 0.062826 0.357858 -2.871232
2007-03-29 05:36:54 51°15.858 2°48.37 15.8885 0.062826 0.357865 -2.871232
2007-03-29 05:36:59 51°15.862 2°48.34 15.8748 0.062826 0.357865 -2.871232
2007-03-29 05:37:04 51°15.866 2°48.311 15.894 0.062826 0.357865 -2.871232
2007-03-29 05:37:09 51°15.87 2°48.281 15.8903 0.062826 0.357873 -2.871232
2007-03-29 05:37:14 51°15.875 2°48.252 15.9243 0.062826 0.35788 -2.871232
2007-03-29 05:37:19 51°15.879 2°48.223 15.8999 0.062826 0.357888 -2.871232
2007-03-29 05:37:24 51°15.883 2°48.193 15.8893 0.062826 0.357888 -2.871232
2007-03-29 05:37:29 51°15.887 2°48.163 15.9194 0.062826 0.357888 -2.871232
2007-03-29 05:37:34 51°15.891 2°48.134 15.8831 0.062826 0.357895 -2.871232
2007-03-29 05:37:39 51°15.895 2°48.104 15.9216 0.062826 0.357902 -2.871232
2007-03-29 05:37:44 51°15.899 2°48.075 15.909 0.062826 0.357902 -2.871232
2007-03-29 05:37:49 51°15.903 2°48.045 15.9172 0.062826 0.35791 -2.871232
2007-03-29 05:37:54 51°15.906 2°48.015 15.9189 0.062826 0.35791 -2.871232
2007-03-29 05:37:59 51°15.91 2°47.986 15.912 0.062826 0.35791 -2.871232
2007-03-29 05:38:04 51°15.914 2°47.956 15.8957 0.062826 0.357917 -2.871232
2007-03-29 05:38:09 51°15.918 2°47.927 15.8763 0.062826 0.357917 -2.871232
2007-03-29 05:38:14 51°15.922 2°47.897 15.9004 0.062826 0.357925 -2.871232
2007-03-29 05:38:19 51°15.927 2°47.868 15.887 0.062826 0.357932 -2.871232
2007-03-29 05:38:24 51°15.931 2°47.838 15.922 0.062826 0.357939 -2.871232
2007-03-29 05:38:29 51°15.935 2°47.808 15.8592 0.062826 0.357939 -2.871232
2007-03-29 05:38:34 51°15.939 2°47.779 15.9333 0.062826 0.357939 -2.871232
2007-03-29 05:38:39 51°15.943 2°47.75 15.9303 0.062826 0.357947 -2.871232
2007-03-29 05:38:44 51°15.947 2°47.72 15.9276 0.062826 0.357954 -2.871232
2007-03-29 05:38:49 51°15.951 2°47.69 15.9178 0.062826 0.357962 -2.871232
2007-03-29 05:38:54 51°15.955 2°47.661 15.9311 0.062826 0.357962 -2.871232
2007-03-29 05:38:59 51°15.959 2°47.631 15.9292 0.062826 0.357962 -2.871232
2007-03-29 05:39:04 51°15.963 2°47.601 15.9168 0.062826 0.357969 -2.871232
2007-03-29 05:39:09 51°15.968 2°47.572 15.9348 0.062826 0.357977 -2.871232
2007-03-29 05:39:14 51°15.972 2°47.542 15.916 0.062826 0.357977 -2.871232
2007-03-29 05:39:19 51°15.976 2°47.513 15.9233 0.062826 0.357984 -2.871232
2007-03-29 05:39:24 51°15.981 2°47.483 15.9095 0.062826 0.357984 -2.871232
2007-03-29 05:39:29 51°15.985 2°47.453 15.8839 0.062826 0.357984 -2.871232
2007-03-29 05:39:34 51°15.99 2°47.424 15.9429 0.062826 0.357991 -2.871232
2007-03-29 05:39:39 51°15.994 2°47.394 15.9306 0.062826 0.357999 -2.871232
2007-03-29 05:39:44 51°15.998 2°47.365 15.9366 0.062826 0.358006 -2.871232
2007-03-29 05:39:49 51°16.002 2°47.335 15.9171 0.062826 0.358006 -2.871232
2007-03-29 05:39:54 51°16.007 2°47.306 15.9569 0.062826 0.358014 -2.871232
2007-03-29 05:39:59 51°16.011 2°47.276 15.9392 0.062826 0.358014 -2.871232
2007-03-29 05:40:04 51°16.015 2°47.247 15.8987 0.062826 0.358021 -2.871232
2007-03-29 05:40:09 51°16.02 2°47.217 15.945 0.062826 0.358021 -2.871232
2007-03-29 05:40:14 51°16.024 2°47.188 15.9123 0.062826 0.358029 -2.871232
2007-03-29 05:40:19 51°16.029 2°47.159 15.9538 0.062826 0.358036 -2.871232
2007-03-29 05:40:24 51°16.033 2°47.129 15.9196 0.062826 0.358036 -2.871232
2007-03-29 05:40:29 51°16.038 2°47.1 15.9348 0.062826 0.358036 -2.871232
2007-03-29 05:40:34 51°16.042 2°47.07 15.8938 0.062826 0.358043 -2.871232
2007-03-29 05:40:39 51°16.046 2°47.041 15.9503 0.062826 0.358043 -2.871232
2007-03-29 05:40:44 51°16.051 2°47.012 15.8789 0.062826 0.358058 -2.871232
2007-03-29 05:40:49 51°16.055 2°46.983 15.9556 0.062826 0.358058 -2.871232
2007-03-29 05:40:54 51°16.059 2°46.953 15.9323 0.062826 0.358066 -2.871232
2007-03-29 05:40:59 51°16.063 2°46.924 15.9257 0.062826 0.358066 -2.871232
2007-03-29 05:41:04 51°16.067 2°46.895 15.8642 0.062826 0.358066 -2.871232
2007-03-29 05:41:09 51°16.07 2°46.866 15.938 0.062826 0.358073 -2.871232
2007-03-29 05:41:14 51°16.074 2°46.837 15.8932 0.062826 0.35808 -2.871232
2007-03-29 05:41:19 51°16.078 2°46.809 15.9494 0.062723 0.357475 -2.871232
2007-03-29 05:41:24 51°16.082 2°46.78 15.9366 0.062826 0.358088 -2.871232
2007-03-29 05:41:29 51°16.086 2°46.751 15.9224 0.062826 0.358088 -2.871232
2007-03-29 05:41:34 51°16.09 2°46.723 15.94 0.062826 0.358088 -2.871232
2007-03-29 05:41:39 51°16.094 2°46.694 15.911 0.062826 0.358095 -2.871232
2007-03-29 05:41:44 51°16.098 2°46.666 15.9062 0.062826 0.358103 -2.871232
2007-03-29 05:41:49 51°16.102 2°46.637 15.9082 0.062723 0.357497 -2.871232
2007-03-29 05:41:54 51°16.106 2°46.609 15.925 0.062826 0.358118 -2.871232
2007-03-29 05:41:59 51°16.11 2°46.581 15.9567 0.062826 0.358118 -2.871232
2007-03-29 05:42:04 51°16.114 2°46.552 15.907 0.062826 0.358118 -2.871232
2007-03-29 05:42:09 51°16.118 2°46.524 15.9449 0.062826 0.358118 -2.871232
2007-03-29 05:42:14 51°16.122 2°46.495 15.8962 0.062723 0.357519 -2.871232
2007-03-29 05:42:19 51°16.126 2°46.467 15.9385 0.062723 0.357527 -2.871232
2007-03-29 05:42:24 51°16.131 2°46.439 15.9276 0.062723 0.357534 -2.871232
2007-03-29 05:42:29 51°16.135 2°46.41 15.9503 0.062723 0.357534 -2.871232
2007-03-29 05:42:34 51°16.139 2°46.382 15.871 0.062826 0.358147 -2.871232
2007-03-29 05:42:39 51°16.143 2°46.353 15.9473 0.062826 0.358147 -2.871232
2007-03-29 05:42:44 51°16.147 2°46.325 15.8798 0.062723 0.357549 -2.871232
2007-03-29 05:42:49 51°16.151 2°46.297 15.9261 0.062723 0.357557 -2.871232
2007-03-29 05:42:54 51°16.155 2°46.269 15.919 0.062826 0.358162 -2.871232
2007-03-29 05:42:59 51°16.159 2°46.241 15.9423 0.062826 0.358162 -2.871232
2007-03-29 05:43:04 51°16.162 2°46.213 15.9316 0.062826 0.35817 -2.871232
2007-03-29 05:43:09 51°16.167 2°46.185 15.9442 0.062826 0.358177 -2.871232
2007-03-29 05:43:14 51°16.17 2°46.156 15.8948 0.062723 0.357571 -2.871232
2007-03-29 05:43:19 51°16.174 2°46.128 15.9225 0.062826 0.358184 -2.871232
2007-03-29 05:43:24 51°16.178 2°46.099 15.8932 0.062723 0.357579 -2.871232
2007-03-29 05:43:29 51°16.182 2°46.071 15.9034 0.062723 0.357579 -2.871232
2007-03-29 05:43:34 51°16.186 2°46.043 15.943 0.062723 0.357586 -2.871232
2007-03-29 05:43:39 51°16.19 2°46.015 15.9352 0.062826 0.358199 -2.871232
2007-03-29 05:43:44 51°16.194 2°45.986 15.9668 0.062723 0.357594 -2.871232
2007-03-29 05:43:49 51°16.198 2°45.958 15.9219 0.062723 0.357601 -2.871232
2007-03-29 05:43:54 51°16.202 2°45.93 15.9441 0.062723 0.357608 -2.871232
2007-03-29 05:43:59 51°16.206 2°45.902 15.9312 0.062723 0.357608 -2.871232
2007-03-29 05:44:04 51°16.21 2°45.873 15.9565 0.062826 0.358214 -2.871232
2007-03-29 05:44:09 51°16.214 2°45.845 15.9254 0.062723 0.357616 -2.871232
2007-03-29 05:44:14 51°16.218 2°45.817 15.8567 0.062723 0.357616 -2.871232
2007-03-29 05:44:19 51°16.225 2°45.791 15.9255 0.062723 0.357623 -2.871232
2007-03-29 05:44:24 51°16.231 2°45.764 15.8907 0.062826 0.358229 -2.871232
2007-03-29 05:44:29 51°16.239 2°45.738 15.9367 0.062826 0.358229 -2.871232
2007-03-29 05:44:34 51°16.247 2°45.713 15.9095 0.062826 0.358236 -2.871232
2007-03-29 05:44:39 51°16.255 2°45.688 15.9571 0.062723 0.357638 -2.871232
2007-03-29 05:44:44 51°16.263 2°45.663 15.9464 0.062723 0.357653 -2.871232
2007-03-29 05:44:49 51°16.271 2°45.638 15.9581 0.062723 0.357653 -2.871232
2007-03-29 05:44:54 51°16.28 2°45.613 15.9799 0.062723 0.35766 -2.871232
2007-03-29 05:44:59 51°16.288 2°45.588 15.958 0.062723 0.35766 -2.871232
2007-03-29 05:45:04 51°16.297 2°45.563 15.9791 0.062826 0.358274 -2.871232
2007-03-29 05:45:09 51°16.305 2°45.537 15.9634 0.062723 0.357675 -2.871232
2007-03-29 05:45:14 51°16.313 2°45.512 15.9564 0.062826 0.358281 -2.871232
2007-03-29 05:45:19 51°16.322 2°45.487 15.9602 0.062723 0.357683 -2.871232
2007-03-29 05:45:24 51°16.33 2°45.462 15.9594 0.062723 0.35769 -2.871232
2007-03-29 05:45:29 51°16.338 2°45.436 15.974 0.062723 0.35769 -2.871232
2007-03-29 05:45:34 51°16.347 2°45.411 15.9317 0.062723 0.35769 -2.871232
2007-03-29 05:45:39 51°16.355 2°45.386 15.9444 0.062723 0.357698 -2.871232
2007-03-29 05:45:44 51°16.364 2°45.361 15.9549 0.062723 0.357698 -2.871232
2007-03-29 05:45:49 51°16.372 2°45.336 15.946 0.062723 0.357705 -2.871232
2007-03-29 05:45:54 51°16.381 2°45.311 15.9452 0.062723 0.357712 -2.871232
2007-03-29 05:45:59 51°16.389 2°45.285 15.9144 0.062723 0.357712 -2.871232
2007-03-29 05:46:04 51°16.398 2°45.26 15.9621 0.062723 0.357712 -2.871232
2007-03-29 05:46:09 51°16.406 2°45.235 15.9524 0.062723 0.35772 -2.871232
2007-03-29 05:46:14 51°16.415 2°45.21 15.9283 0.062826 0.358333 -2.871232
2007-03-29 05:46:19 51°16.424 2°45.185 15.9657 0.062723 0.357727 -2.871232
2007-03-29 05:46:24 51°16.433 2°45.16 15.9461 0.062826 0.358341 -2.871232
2007-03-29 05:46:29 51°16.443 2°45.136 15.9581 0.062826 0.358341 -2.871232
2007-03-29 05:46:34 51°16.453 2°45.112 15.9209 0.062723 0.357742 -2.871232
2007-03-29 05:46:39 51°16.462 2°45.088 15.968 0.062723 0.357742 -2.871232
2007-03-29 05:46:44 51°16.472 2°45.064 15.9562 0.062723 0.357757 -2.871232
2007-03-29 05:46:49 51°16.482 2°45.04 15.9415 0.062723 0.357757 -2.871232
2007-03-29 05:46:54 51°16.492 2°45.016 15.915 0.062723 0.357764 -2.871232
2007-03-29 05:46:59 51°16.502 2°44.993 15.9632 0.062723 0.357764 -2.871232
2007-03-29 05:47:05 51°16.514 2°44.964 15.9861 0.062723 0.357772 -2.871232
2007-03-29 05:47:09 51°16.522 2°44.945 15.9702 0.062723 0.357772 -2.871232
2007-03-29 05:47:14 51°16.532 2°44.921 15.9616 0.062723 0.357779 -2.871232
2007-03-29 05:47:19 51°16.542 2°44.896 15.9311 0.062723 0.357779 -2.871232
2007-03-29 05:47:24 51°16.551 2°44.873 15.9518 0.062723 0.357787 -2.871232
2007-03-29 05:47:29 51°16.561 2°44.849 15.9528 0.062723 0.357787 -2.871232
2007-03-29 05:47:34 51°16.571 2°44.825 15.9604 0.062723 0.357787 -2.871232
2007-03-29 05:47:39 51°16.58 2°44.801 15.9731 0.062723 0.357794 -2.871232
2007-03-29 05:47:44 51°16.59 2°44.776 15.9663 0.062723 0.357801 -2.871232
2007-03-29 05:47:49 51°16.6 2°44.753 15.9729 0.062723 0.357801 -2.871232
2007-03-29 05:47:54 51°16.61 2°44.728 15.9466 0.062723 0.357809 -2.871232
2007-03-29 05:47:59 51°16.619 2°44.704 15.9569 0.062723 0.357809 -2.871232
2007-03-29 05:48:04 51°16.629 2°44.68 15.9607 0.062723 0.357816 -2.871232
2007-03-29 05:48:09 51°16.639 2°44.656 15.9555 0.062723 0.357824 -2.871232
2007-03-29 05:48:14 51°16.649 2°44.631 15.9824 0.062723 0.357831 -2.871232
2007-03-29 05:48:19 51°16.659 2°44.607 15.9947 0.062723 0.357839 -2.871232
2007-03-29 05:48:24 51°16.668 2°44.582 15.9735 0.062723 0.357846 -2.871232
2007-03-29 05:48:29 51°16.678 2°44.557 15.9897 0.062723 0.357846 -2.871232
2007-03-29 05:48:34 51°16.688 2°44.533 15.9418 0.062723 0.357853 -2.871232
2007-03-29 05:48:39 51°16.697 2°44.508 15.9567 0.062723 0.357861 -2.871232
2007-03-29 05:48:44 51°16.707 2°44.483 15.9786 0.062723 0.357861 -2.871232
2007-03-29 05:48:49 51°16.717 2°44.458 15.9616 0.062723 0.357868 -2.871232
2007-03-29 05:48:54 51°16.727 2°44.434 15.9528 0.062723 0.357876 -2.871232
2007-03-29 05:48:59 51°16.736 2°44.409 15.9577 0.062723 0.357876 -2.871232
2007-03-29 05:49:04 51°16.746 2°44.384 15.9814 0.062723 0.357876 -2.871232
2007-03-29 05:49:09 51°16.756 2°44.359 15.9439 0.062723 0.357883 -2.871232
2007-03-29 05:49:14 51°16.765 2°44.334 15.9815 0.062723 0.357891 -2.871232
2007-03-29 05:49:19 51°16.775 2°44.309 15.961 0.062723 0.357905 -2.871232
2007-03-29 05:49:24 51°16.785 2°44.285 15.9955 0.062723 0.35792 -2.871232
2007-03-29 05:49:29 51°16.795 2°44.26 15.9918 0.062723 0.35792 -2.871232
2007-03-29 05:49:34 51°16.804 2°44.235 15.9862 0.062723 0.357928 -2.871232
2007-03-29 05:49:39 51°16.814 2°44.21 15.9656 0.062723 0.357935 -2.871232
2007-03-29 05:49:44 51°16.824 2°44.185 15.9862 0.062723 0.357935 -2.871232
2007-03-29 05:49:49 51°16.833 2°44.16 15.9823 0.062723 0.357935 -2.871232
2007-03-29 05:49:54 51°16.843 2°44.136 15.9787 0.062723 0.357935 -2.871232
2007-03-29 05:49:59 51°16.853 2°44.111 15.9915 0.062723 0.357935 -2.871232
2007-03-29 05:50:04 51°16.862 2°44.086 15.9739 0.062723 0.357935 -2.871232
2007-03-29 05:50:09 51°16.872 2°44.062 15.9836 0.062723 0.357928 -2.871232
2007-03-29 05:50:14 51°16.882 2°44.037 16.0038 0.062723 0.357928 -2.871232
2007-03-29 05:50:19 51°16.891 2°44.012 15.9969 0.062723 0.357928 -2.871232
2007-03-29 05:50:24 51°16.901 2°43.987 16.0089 0.062723 0.357935 -2.871232
2007-03-29 05:50:29 51°16.911 2°43.962 15.9613 0.062723 0.357935 -2.871232
2007-03-29 05:50:34 51°16.92 2°43.937 16.0025 0.062723 0.357943 -2.871232
2007-03-29 05:50:39 51°16.929 2°43.912 15.9781 0.062723 0.357943 -2.871232
2007-03-29 05:50:44 51°16.939 2°43.887 16.006 0.062723 0.357958 -2.871232
2007-03-29 05:50:49 51°16.948 2°43.862 15.9752 0.062723 0.357965 -2.871232
2007-03-29 05:50:54 51°16.958 2°43.837 15.9803 0.062723 0.357972 -2.871232
2007-03-29 05:50:59 51°16.968 2°43.812 15.9885 0.062723 0.357972 -2.871232
2007-03-29 05:51:04 51°16.978 2°43.787 15.9872 0.062723 0.35798 -2.871232
2007-03-29 05:51:09 51°16.988 2°43.763 16 0.062723 0.357995 -2.871232
2007-03-29 05:51:14 51°16.998 2°43.737 15.9785 0.062723 0.358002 -2.871232
2007-03-29 05:51:19 51°17.007 2°43.713 15.9955 0.062723 0.35801 -2.871232
2007-03-29 05:51:24 51°17.017 2°43.688 15.9861 0.062723 0.358017 -2.871232
2007-03-29 05:51:29 51°17.027 2°43.663 15.9941 0.062723 0.358017 -2.871232
2007-03-29 05:51:34 51°17.037 2°43.638 16.0081 0.062723 0.358024 -2.871232
2007-03-29 05:51:39 51°17.047 2°43.614 15.9796 0.062723 0.358032 -2.871232
2007-03-29 05:51:44 51°17.057 2°43.589 16.0092 0.06262 0.357426 -2.871232
2007-03-29 05:51:49 51°17.066 2°43.564 16.0072 0.062723 0.358039 -2.871232
2007-03-29 05:51:54 51°17.076 2°43.539 16.0022 0.062723 0.358039 -2.871232
2007-03-29 05:51:59 51°17.086 2°43.514 15.9949 0.062723 0.358039 -2.871232
2007-03-29 05:52:04 51°17.096 2°43.49 16.0024 0.062723 0.358047 -2.871232
2007-03-29 05:52:09 51°17.106 2°43.465 16.0089 0.062723 0.358054 -2.871232
2007-03-29 05:52:14 51°17.116 2°43.44 16.0027 0.062723 0.358054 -2.871232
2007-03-29 05:52:19 51°17.126 2°43.416 15.9999 0.062723 0.358069 -2.871232
2007-03-29 05:52:24 51°17.136 2°43.391 15.9757 0.062723 0.358069 -2.871232
2007-03-29 05:52:29 51°17.146 2°43.366 15.9904 0.062723 0.358069 -2.871232
2007-03-29 05:52:34 51°17.156 2°43.341 16.0015 0.062723 0.358077 -2.871232
2007-03-29 05:52:39 51°17.166 2°43.317 16.0064 0.062723 0.358077 -2.871232
2007-03-29 05:52:44 51°17.176 2°43.292 15.9827 0.062723 0.358084 -2.871232
2007-03-29 05:52:49 51°17.185 2°43.268 16.0214 0.062723 0.358091 -2.871232
2007-03-29 05:52:54 51°17.195 2°43.243 15.9611 0.062723 0.358099 -2.871232
2007-03-29 05:52:59 51°17.205 2°43.219 16.0135 0.062723 0.358099 -2.871232
2007-03-29 05:53:04 51°17.215 2°43.195 16.0093 0.062723 0.358106 -2.871232
2007-03-29 05:53:09 51°17.225 2°43.17 16.0124 0.062723 0.358114 -2.871232
2007-03-29 05:53:14 51°17.235 2°43.146 15.974 0.062723 0.358121 -2.871232
2007-03-29 05:53:19 51°17.245 2°43.121 15.963 0.062723 0.358129 -2.871232
2007-03-29 05:53:24 51°17.255 2°43.097 16.0289 0.062723 0.358129 -2.871232
2007-03-29 05:53:29 51°17.265 2°43.073 15.9928 0.062723 0.358129 -2.871232
2007-03-29 05:53:34 51°17.275 2°43.048 15.9956 0.062723 0.358136 -2.871232
2007-03-29 05:53:39 51°17.285 2°43.023 15.9764 0.062723 0.358143 -2.871232
2007-03-29 05:53:44 51°17.295 2°42.999 16.0178 0.062723 0.358151 -2.871232
2007-03-29 05:53:49 51°17.305 2°42.975 15.9984 0.062723 0.358158 -2.871232
2007-03-29 05:53:54 51°17.315 2°42.951 16.0112 0.06262 0.357552 -2.871232
2007-03-29 05:53:59 51°17.325 2°42.927 15.9818 0.06262 0.357552 -2.871232
2007-03-29 05:54:04 51°17.335 2°42.903 15.9971 0.062723 0.358166 -2.871232
2007-03-29 05:54:09 51°17.345 2°42.879 16.0182 0.06262 0.357567 -2.871232
2007-03-29 05:54:14 51°17.355 2°42.854 16.0294 0.062723 0.358181 -2.871232
2007-03-29 05:54:19 51°17.365 2°42.83 15.9851 0.062723 0.358188 -2.871232
2007-03-29 05:54:24 51°17.375 2°42.807 16.0187 0.06262 0.357589 -2.871232
2007-03-29 05:54:29 51°17.385 2°42.782 16.0141 0.06262 0.357589 -2.871232
2007-03-29 05:54:34 51°17.395 2°42.757 16.0224 0.062723 0.358196 -2.871232
2007-03-29 05:54:39 51°17.406 2°42.732 16.0052 0.062723 0.358203 -2.871232
2007-03-29 05:54:44 51°17.416 2°42.708 16.0115 0.062723 0.35821 -2.871232
2007-03-29 05:54:49 51°17.426 2°42.683 15.9824 0.06262 0.357604 -2.871232
2007-03-29 05:54:54 51°17.437 2°42.658 16.011 0.06262 0.357619 -2.871232
2007-03-29 05:54:59 51°17.447 2°42.633 15.9811 0.06262 0.357619 -2.871232
2007-03-29 05:55:04 51°17.457 2°42.609 15.9952 0.062723 0.358233 -2.871232
2007-03-29 05:55:09 51°17.468 2°42.583 16.0006 0.06262 0.357634 -2.871232
2007-03-29 05:55:14 51°17.478 2°42.558 16.016 0.06262 0.357634 -2.871232
2007-03-29 05:55:19 51°17.488 2°42.533 16.0212 0.062723 0.358248 -2.871232
2007-03-29 05:55:24 51°17.499 2°42.508 16.0339 0.06262 0.357648 -2.871232
2007-03-29 05:55:29 51°17.509 2°42.483 16.0193 0.06262 0.357648 -2.871232
2007-03-29 05:55:34 51°17.519 2°42.458 16.0359 0.06262 0.357656 -2.871232
2007-03-29 05:55:39 51°17.529 2°42.434 16.0189 0.06262 0.357663 -2.871232
2007-03-29 05:55:44 51°17.539 2°42.409 16.0277 0.062723 0.358278 -2.871232
2007-03-29 05:55:49 51°17.549 2°42.384 16.0164 0.06262 0.357678 -2.871232
2007-03-29 05:55:54 51°17.56 2°42.359 16.0198 0.06262 0.357678 -2.871232
2007-03-29 05:55:59 51°17.569 2°42.335 16.0221 0.06262 0.357678 -2.871232
2007-03-29 05:56:04 51°17.58 2°42.31 15.9968 0.06262 0.357686 -2.871232
2007-03-29 05:56:09 51°17.59 2°42.286 16.0312 0.06262 0.357693 -2.871232
2007-03-29 05:56:14 51°17.6 2°42.261 16.0199 0.06262 0.3577 -2.871232
2007-03-29 05:56:19 51°17.61 2°42.236 16.0492 0.06262 0.357708 -2.871232
2007-03-29 05:56:24 51°17.62 2°42.211 16.02 0.06262 0.357708 -2.871232
2007-03-29 05:56:29 51°17.63 2°42.187 16.0403 0.06262 0.357708 -2.871232
2007-03-29 05:56:34 51°17.64 2°42.162 16.0282 0.06262 0.357715 -2.871232
2007-03-29 05:56:39 51°17.65 2°42.138 16.0454 0.062723 0.35833 -2.871232
2007-03-29 05:56:44 51°17.66 2°42.113 16.0269 0.06262 0.35773 -2.871232
2007-03-29 05:56:49 51°17.67 2°42.088 16.0437 0.06262 0.357738 -2.871232
2007-03-29 05:56:54 51°17.68 2°42.063 16.0395 0.06262 0.357745 -2.871232
2007-03-29 05:56:59 51°17.69 2°42.038 16.0509 0.06262 0.357745 -2.871232
2007-03-29 05:57:04 51°17.699 2°42.014 16.0271 0.06262 0.357753 -2.871232
2007-03-29 05:57:09 51°17.709 2°41.989 16.0178 0.06262 0.35776 -2.871232
2007-03-29 05:57:14 51°17.719 2°41.964 16.0284 0.06262 0.35776 -2.871232
2007-03-29 05:57:19 51°17.729 2°41.939 16.0151 0.06262 0.357767 -2.871232
2007-03-29 05:57:24 51°17.739 2°41.914 16.0186 0.06262 0.357775 -2.871232
2007-03-29 05:57:29 51°17.749 2°41.889 16.0555 0.06262 0.357775 -2.871232
2007-03-29 05:57:34 51°17.759 2°41.864 16.0446 0.06262 0.357782 -2.871232
2007-03-29 05:57:39 51°17.768 2°41.839 16.0565 0.06262 0.35779 -2.871232
2007-03-29 05:57:44 51°17.777 2°41.814 16.0477 0.06262 0.35779 -2.871232
2007-03-29 05:57:49 51°17.786 2°41.789 16.0449 0.06262 0.357797 -2.871232
2007-03-29 05:57:54 51°17.796 2°41.763 16.0329 0.06262 0.357805 -2.871232
2007-03-29 05:57:59 51°17.805 2°41.738 16.0383 0.06262 0.357805 -2.871232
2007-03-29 05:58:04 51°17.815 2°41.713 16.0522 0.06262 0.357812 -2.871232
2007-03-29 05:58:09 51°17.825 2°41.688 16.0519 0.062723 0.358427 -2.871232
2007-03-29 05:58:14 51°17.835 2°41.663 16.0493 0.06262 0.357827 -2.871232
2007-03-29 05:58:19 51°17.844 2°41.639 16.0371 0.06262 0.357834 -2.871232
2007-03-29 05:58:24 51°17.854 2°41.614 16.0322 0.06262 0.357834 -2.871232
2007-03-29 05:58:29 51°17.864 2°41.589 16.0601 0.06262 0.357834 -2.871232
2007-03-29 05:58:34 51°17.874 2°41.564 16.0568 0.06262 0.357849 -2.871232
2007-03-29 05:58:39 51°17.884 2°41.54 16.0663 0.06262 0.357849 -2.871232
2007-03-29 05:58:44 51°17.893 2°41.515 16.0366 0.06262 0.357857 -2.871232
2007-03-29 05:58:49 51°17.903 2°41.49 16.0492 0.06262 0.357864 -2.871232
2007-03-29 05:58:54 51°17.912 2°41.466 16.0507 0.06262 0.357872 -2.871232
2007-03-29 05:58:59 51°17.922 2°41.442 16.0343 0.06262 0.357872 -2.871232
2007-03-29 05:59:04 51°17.931 2°41.418 16.0492 0.06262 0.357879 -2.871232
2007-03-29 05:59:09 51°17.941 2°41.393 16.0352 0.06262 0.357887 -2.871232
2007-03-29 05:59:14 51°17.95 2°41.369 16.0603 0.06262 0.357887 -2.871232
2007-03-29 05:59:19 51°17.96 2°41.345 16.0103 0.06262 0.357894 -2.871232
2007-03-29 05:59:24 51°17.97 2°41.321 16.0545 0.06262 0.357901 -2.871232
2007-03-29 05:59:29 51°17.98 2°41.296 16.0491 0.06262 0.357901 -2.871232
2007-03-29 05:59:34 51°17.989 2°41.272 16.075 0.06262 0.357909 -2.871232
2007-03-29 05:59:39 51°17.999 2°41.248 16.0354 0.06262 0.357916 -2.871232
2007-03-29 05:59:44 51°18.009 2°41.224 16.0615 0.06262 0.357916 -2.871232
2007-03-29 05:59:49 51°18.019 2°41.199 16.0471 0.06262 0.357924 -2.871232
2007-03-29 05:59:54 51°18.028 2°41.175 16.0432 0.06262 0.357931 -2.871232
2007-03-29 05:59:59 51°18.038 2°41.151 16.0419 0.06262 0.357931 -2.871232
2007-03-29 06:00:04 51°18.048 2°41.126 16.0632 0.06262 0.357939 -2.871232
2007-03-29 06:00:09 51°18.059 2°41.102 16.0782 0.06262 0.357946 -2.871232
2007-03-29 06:00:14 51°18.069 2°41.078 16.061 0.06262 0.357946 -2.871232
2007-03-29 06:00:19 51°18.079 2°41.054 16.0726 0.06262 0.357954 -2.871232
2007-03-29 06:00:24 51°18.089 2°41.03 16.0755 0.06262 0.357961 -2.871232
2007-03-29 06:00:29 51°18.098 2°41.005 16.0743 0.06262 0.357961 -2.871232
2007-03-29 06:00:34 51°18.108 2°40.981 16.0709 0.06262 0.357968 -2.871232
2007-03-29 06:00:39 51°18.118 2°40.957 16.0546 0.06262 0.357976 -2.871232
2007-03-29 06:00:44 51°18.128 2°40.932 16.0533 0.06262 0.357983 -2.871232
2007-03-29 06:00:49 51°18.138 2°40.908 16.0642 0.06262 0.357991 -2.871232
2007-03-29 06:00:54 51°18.148 2°40.884 16.0842 0.06262 0.357991 -2.871232
2007-03-29 06:00:59 51°18.158 2°40.86 16.0587 0.06262 0.357991 -2.871232
2007-03-29 06:01:04 51°18.168 2°40.836 16.0475 0.06262 0.358006 -2.871232
2007-03-29 06:01:09 51°18.178 2°40.812 16.0894 0.06262 0.358006 -2.871232
2007-03-29 06:01:14 51°18.188 2°40.787 16.0424 0.06262 0.358013 -2.871232
2007-03-29 06:01:19 51°18.199 2°40.763 16.0787 0.06262 0.358013 -2.871232
2007-03-29 06:01:24 51°18.209 2°40.738 16.0797 0.06262 0.358028 -2.871232
2007-03-29 06:01:29 51°18.219 2°40.714 16.0888 0.06262 0.358028 -2.871232
2007-03-29 06:01:34 51°18.23 2°40.69 16.0822 0.06262 0.358028 -2.871232
2007-03-29 06:01:39 51°18.24 2°40.665 16.0851 0.06262 0.358035 -2.871232
2007-03-29 06:01:44 51°18.25 2°40.641 16.1016 0.06262 0.358043 -2.871232
2007-03-29 06:01:49 51°18.26 2°40.616 16.0674 0.062517 0.357443 -2.871232
2007-03-29 06:01:54 51°18.27 2°40.591 16.0911 0.06262 0.358058 -2.871232
2007-03-29 06:01:59 51°18.28 2°40.567 16.0491 0.06262 0.358058 -2.871232
2007-03-29 06:02:04 51°18.29 2°40.542 16.0888 0.062517 0.357458 -2.871232
2007-03-29 06:02:09 51°18.3 2°40.518 16.0913 0.06262 0.358073 -2.871232
2007-03-29 06:02:14 51°18.31 2°40.493 16.0612 0.06262 0.35808 -2.871232
2007-03-29 06:02:19 51°18.32 2°40.468 16.0856 0.062517 0.357473 -2.871232
2007-03-29 06:02:24 51°18.33 2°40.443 16.0679 0.06262 0.358088 -2.871232
2007-03-29 06:02:29 51°18.34 2°40.419 16.0968 0.06262 0.358088 -2.871232
2007-03-29 06:02:34 51°18.351 2°40.394 16.0879 0.06262 0.358095 -2.871232
2007-03-29 06:02:39 51°18.361 2°40.37 16.0296 0.06262 0.358103 -2.871232
2007-03-29 06:02:44 51°18.371 2°40.346 16.0919 0.06262 0.358103 -2.871232
2007-03-29 06:02:49 51°18.381 2°40.321 16.0913 0.062517 0.357503 -2.871232
2007-03-29 06:02:54 51°18.391 2°40.297 16.0595 0.06262 0.358125 -2.871232
2007-03-29 06:02:59 51°18.401 2°40.274 16.0819 0.06262 0.358125 -2.871232
2007-03-29 06:03:05 51°18.413 2°40.244 16.094 0.062517 0.357525 -2.871232
2007-03-29 06:03:09 51°18.422 2°40.225 16.0756 0.06262 0.358132 -2.871232
2007-03-29 06:03:14 51°18.432 2°40.2 16.0851 0.06262 0.35814 -2.871232
2007-03-29 06:03:19 51°18.442 2°40.176 16.0689 0.06262 0.358147 -2.871232
2007-03-29 06:03:24 51°18.453 2°40.151 16.0589 0.06262 0.358155 -2.871232
2007-03-29 06:03:29 51°18.463 2°40.127 16.0652 0.06262 0.358155 -2.871232
2007-03-29 06:03:34 51°18.473 2°40.103 16.0971 0.062517 0.357555 -2.871232
2007-03-29 06:03:39 51°18.484 2°40.078 16.0681 0.06262 0.35817 -2.871232
2007-03-29 06:03:44 51°18.494 2°40.054 16.0519 0.062517 0.35757 -2.871232
2007-03-29 06:03:49 51°18.504 2°40.029 16.0882 0.062517 0.35757 -2.871232
2007-03-29 06:03:54 51°18.514 2°40.005 16.0989 0.06262 0.358185 -2.871232
2007-03-29 06:03:59 51°18.525 2°39.98 16.0774 0.06262 0.358185 -2.871232
2007-03-29 06:04:04 51°18.535 2°39.956 16.0624 0.062517 0.357584 -2.871232
2007-03-29 06:04:09 51°18.545 2°39.932 16.0957 0.062517 0.357584 -2.871232
2007-03-29 06:04:14 51°18.555 2°39.908 16.089 0.062517 0.357592 -2.871232
2007-03-29 06:04:19 51°18.565 2°39.883 16.0919 0.06262 0.358207 -2.871232
2007-03-29 06:04:24 51°18.576 2°39.859 16.0608 0.06262 0.358214 -2.871232
2007-03-29 06:04:29 51°18.586 2°39.835 16.1042 0.06262 0.358214 -2.871232
2007-03-29 06:04:34 51°18.596 2°39.81 16.0888 0.06262 0.358222 -2.871232
2007-03-29 06:04:39 51°18.606 2°39.786 16.0889 0.062517 0.357622 -2.871232
2007-03-29 06:04:44 51°18.616 2°39.762 16.0484 0.06262 0.358237 -2.871232
2007-03-29 06:04:49 51°18.626 2°39.738 16.0855 0.06262 0.358237 -2.871232
2007-03-29 06:04:54 51°18.636 2°39.713 16.0936 0.06262 0.358244 -2.871232
2007-03-29 06:04:59 51°18.646 2°39.689 16.0615 0.06262 0.358244 -2.871232
2007-03-29 06:05:05 51°18.658 2°39.659 16.0895 0.062517 0.357644 -2.871232
2007-03-29 06:05:09 51°18.666 2°39.64 16.0851 0.06262 0.358259 -2.871232
2007-03-29 06:05:14 51°18.676 2°39.616 16.1026 0.062517 0.357659 -2.871232
2007-03-29 06:05:19 51°18.686 2°39.592 16.1037 0.06262 0.358274 -2.871232
2007-03-29 06:05:24 51°18.696 2°39.567 16.0784 0.06262 0.358282 -2.871232
2007-03-29 06:05:29 51°18.706 2°39.543 16.0956 0.06262 0.358282 -2.871232
2007-03-29 06:05:34 51°18.717 2°39.519 16.0753 0.062517 0.357674 -2.871232
2007-03-29 06:05:39 51°18.727 2°39.495 16.0756 0.062517 0.357681 -2.871232
2007-03-29 06:05:44 51°18.738 2°39.47 16.1034 0.062517 0.357689 -2.871232
2007-03-29 06:05:49 51°18.747 2°39.446 16.1024 0.062517 0.357696 -2.871232
2007-03-29 06:05:54 51°18.758 2°39.422 16.0848 0.062517 0.357704 -2.871232
2007-03-29 06:05:59 51°18.768 2°39.397 16.0921 0.062517 0.357704 -2.871232
2007-03-29 06:06:04 51°18.778 2°39.373 16.1075 0.062517 0.357711 -2.871232
2007-03-29 06:06:09 51°18.788 2°39.348 16.0937 0.062517 0.357711 -2.871232
2007-03-29 06:06:14 51°18.798 2°39.324 16.108 0.062517 0.357719 -2.871232
2007-03-29 06:06:19 51°18.808 2°39.3 16.1101 0.062517 0.357726 -2.871232
2007-03-29 06:06:24 51°18.818 2°39.275 16.1024 0.062517 0.357733 -2.871232
2007-03-29 06:06:29 51°18.827 2°39.25 16.1147 0.062517 0.357733 -2.871232
2007-03-29 06:06:34 51°18.837 2°39.225 16.1009 0.062517 0.357741 -2.871232
2007-03-29 06:06:39 51°18.846 2°39.201 16.1148 0.062517 0.357741 -2.871232
2007-03-29 06:06:44 51°18.856 2°39.176 16.1028 0.062517 0.357748 -2.871232
2007-03-29 06:06:49 51°18.866 2°39.152 16.1082 0.062517 0.357756 -2.871232
2007-03-29 06:06:54 51°18.875 2°39.127 16.1036 0.06262 0.358364 -2.871232
2007-03-29 06:06:59 51°18.885 2°39.103 16.1165 0.06262 0.358364 -2.871232
2007-03-29 06:07:04 51°18.894 2°39.078 16.0746 0.062517 0.357763 -2.871232
2007-03-29 06:07:09 51°18.904 2°39.054 16.1029 0.062517 0.357771 -2.871232
2007-03-29 06:07:14 51°18.914 2°39.029 16.1198 0.062517 0.357778 -2.871232
2007-03-29 06:07:19 51°18.923 2°39.005 16.1133 0.06262 0.358386 -2.871232
2007-03-29 06:07:24 51°18.933 2°38.981 16.1064 0.062517 0.357793 -2.871232
2007-03-29 06:07:29 51°18.943 2°38.956 16.1005 0.062517 0.357793 -2.871232
2007-03-29 06:07:34 51°18.953 2°38.932 16.1308 0.062517 0.357793 -2.871232
2007-03-29 06:07:39 51°18.962 2°38.907 16.1229 0.062517 0.357801 -2.871232
2007-03-29 06:07:44 51°18.972 2°38.883 16.101 0.062517 0.357801 -2.871232
2007-03-29 06:07:49 51°18.981 2°38.859 16.0977 0.062517 0.357815 -2.871232
2007-03-29 06:07:54 51°18.991 2°38.834 16.1055 0.062517 0.357815 -2.871232
2007-03-29 06:07:59 51°19 2°38.81 16.1162 0.062517 0.357815 -2.871232
2007-03-29 06:08:04 51°19.01 2°38.785 16.119 0.062517 0.357823 -2.871232
2007-03-29 06:08:09 51°19.02 2°38.761 16.1173 0.062517 0.357823 -2.871232
2007-03-29 06:08:14 51°19.029 2°38.736 16.0827 0.062517 0.357838 -2.871232
2007-03-29 06:08:19 51°19.039 2°38.712 16.1284 0.062517 0.357838 -2.871232
2007-03-29 06:08:24 51°19.048 2°38.687 16.1152 0.062517 0.357845 -2.871232
2007-03-29 06:08:29 51°19.058 2°38.663 16.0949 0.062517 0.357845 -2.871232
2007-03-29 06:08:34 51°19.068 2°38.639 16.0981 0.062517 0.357845 -2.871232
2007-03-29 06:08:39 51°19.077 2°38.614 16.1021 0.062517 0.357853 -2.871232
2007-03-29 06:08:44 51°19.087 2°38.59 16.1102 0.062517 0.357853 -2.871232
2007-03-29 06:08:49 51°19.097 2°38.566 16.0979 0.062517 0.357868 -2.871232
2007-03-29 06:08:54 51°19.107 2°38.541 16.088 0.062517 0.357868 -2.871232
2007-03-29 06:08:59 51°19.116 2°38.517 16.1245 0.062517 0.357868 -2.871232
2007-03-29 06:09:04 51°19.127 2°38.494 16.1275 0.062517 0.357875 -2.871232
2007-03-29 06:09:09 51°19.137 2°38.47 16.132 0.062517 0.357883 -2.871232
2007-03-29 06:09:14 51°19.147 2°38.446 16.1316 0.062517 0.35789 -2.871232
2007-03-29 06:09:19 51°19.158 2°38.423 16.0977 0.062517 0.35789 -2.871232
2007-03-29 06:09:24 51°19.168 2°38.399 16.106 0.062517 0.357898 -2.871232
2007-03-29 06:09:29 51°19.178 2°38.376 16.1247 0.062517 0.357898 -2.871232
2007-03-29 06:09:34 51°19.188 2°38.352 16.1311 0.062517 0.357905 -2.871232
2007-03-29 06:09:39 51°19.199 2°38.329 16.1203 0.062517 0.357905 -2.871232
2007-03-29 06:09:44 51°19.209 2°38.305 16.0908 0.062517 0.357912 -2.871232
2007-03-29 06:09:49 51°19.219 2°38.282 16.1172 0.062517 0.35792 -2.871232
2007-03-29 06:09:54 51°19.23 2°38.258 16.1255 0.062517 0.357927 -2.871232
2007-03-29 06:09:59 51°19.24 2°38.235 16.1113 0.062517 0.357927 -2.871232
2007-03-29 06:10:04 51°19.251 2°38.211 16.133 0.062517 0.357935 -2.871232
2007-03-29 06:10:09 51°19.261 2°38.188 16.1297 0.062517 0.357935 -2.871232
2007-03-29 06:10:14 51°19.272 2°38.164 16.1349 0.062517 0.357942 -2.871232
2007-03-29 06:10:19 51°19.282 2°38.14 16.1281 0.062517 0.357942 -2.871232
2007-03-29 06:10:24 51°19.292 2°38.117 16.1315 0.062517 0.35795 -2.871232
2007-03-29 06:10:29 51°19.303 2°38.094 16.1373 0.062517 0.35795 -2.871232
2007-03-29 06:10:34 51°19.313 2°38.071 16.1183 0.062517 0.35795 -2.871232
2007-03-29 06:10:39 51°19.324 2°38.048 16.133 0.062517 0.357957 -2.871232
2007-03-29 06:10:44 51°19.335 2°38.025 16.1103 0.062517 0.357957 -2.871232
2007-03-29 06:10:49 51°19.346 2°38.002 16.13 0.062517 0.357965 -2.871232
2007-03-29 06:10:54 51°19.356 2°37.979 16.1421 0.062517 0.357972 -2.871232
2007-03-29 06:10:59 51°19.367 2°37.956 16.104 0.062517 0.357972 -2.871232
2007-03-29 06:11:04 51°19.378 2°37.933 16.1368 0.062517 0.357972 -2.871232
2007-03-29 06:11:09 51°19.389 2°37.911 16.1356 0.062517 0.357987 -2.871232
2007-03-29 06:11:14 51°19.4 2°37.888 16.1319 0.062517 0.358002 -2.871232
2007-03-29 06:11:19 51°19.411 2°37.866 16.1354 0.062517 0.358017 -2.871232
2007-03-29 06:11:24 51°19.422 2°37.843 16.1338 0.062517 0.358032 -2.871232
2007-03-29 06:11:29 51°19.434 2°37.82 16.1531 0.062517 0.358032 -2.871232
2007-03-29 06:11:34 51°19.445 2°37.798 16.1313 0.062517 0.358039 -2.871232
2007-03-29 06:11:39 51°19.455 2°37.774 16.1328 0.062517 0.358039 -2.871232
2007-03-29 06:11:44 51°19.466 2°37.751 16.1326 0.062517 0.358039 -2.871232
2007-03-29 06:11:49 51°19.477 2°37.728 16.1233 0.062517 0.358039 -2.871232
2007-03-29 06:11:54 51°19.487 2°37.704 16.1484 0.062517 0.358032 -2.871232
2007-03-29 06:11:59 51°19.498 2°37.681 16.1446 0.062517 0.358032 -2.871232
2007-03-29 06:12:04 51°19.509 2°37.658 16.1313 0.062517 0.358024 -2.871232
2007-03-29 06:12:09 51°19.52 2°37.635 16.1194 0.062517 0.358024 -2.871232
2007-03-29 06:12:14 51°19.531 2°37.612 16.1167 0.062517 0.358024 -2.871232
2007-03-29 06:12:19 51°19.542 2°37.589 16.1585 0.062517 0.358024 -2.871232
2007-03-29 06:12:24 51°19.553 2°37.566 16.1062 0.062517 0.358032 -2.871232
2007-03-29 06:12:29 51°19.564 2°37.543 16.1497 0.062517 0.358032 -2.871232
2007-03-29 06:12:34 51°19.575 2°37.52 16.1286 0.062517 0.358032 -2.871232
2007-03-29 06:12:39 51°19.585 2°37.497 16.1475 0.062517 0.358047 -2.871232
2007-03-29 06:12:44 51°19.596 2°37.474 16.1328 0.062517 0.358054 -2.871232
2007-03-29 06:12:49 51°19.607 2°37.451 16.1402 0.062414 0.357453 -2.871232
2007-03-29 06:12:54 51°19.618 2°37.428 16.1573 0.062414 0.357461 -2.871232
2007-03-29 06:12:59 51°19.629 2°37.405 16.1605 0.062414 0.357461 -2.871232
2007-03-29 06:13:04 51°19.641 2°37.382 16.1623 0.062517 0.358077 -2.871232
2007-03-29 06:13:09 51°19.651 2°37.359 16.13 0.062415 0.357483 -2.871232
2007-03-29 06:13:14 51°19.662 2°37.336 16.1581 0.062517 0.358092 -2.871232
2007-03-29 06:13:19 51°19.673 2°37.312 16.162 0.062517 0.358099 -2.871232
2007-03-29 06:13:24 51°19.684 2°37.289 16.157 0.062517 0.358107 -2.871232
2007-03-29 06:13:29 51°19.695 2°37.266 16.1221 0.062517 0.358107 -2.871232
2007-03-29 06:13:34 51°19.707 2°37.244 16.1304 0.062517 0.358107 -2.871232
2007-03-29 06:13:39 51°19.719 2°37.222 16.1652 0.062517 0.358114 -2.871232
2007-03-29 06:13:44 51°19.73 2°37.2 16.1481 0.062517 0.358114 -2.871232
2007-03-29 06:13:49 51°19.741 2°37.178 16.121 0.062415 0.357513 -2.871232
2007-03-29 06:13:54 51°19.752 2°37.156 16.1389 0.062517 0.358129 -2.871232
2007-03-29 06:13:59 51°19.763 2°37.136 16.1111 0.062517 0.358129 -2.871232
2007-03-29 06:14:04 51°19.772 2°37.117 16.1544 0.062415 0.35752 -2.871232
2007-03-29 06:14:09 51°19.781 2°37.099 16.1543 0.062517 0.358136 -2.871232
2007-03-29 06:14:14 51°19.79 2°37.082 16.1606 0.062517 0.358144 -2.871232
2007-03-29 06:14:19 51°19.798 2°37.066 16.1367 0.062517 0.358144 -2.871232
2007-03-29 06:14:25 51°19.807 2°37.048 16.1443 0.062415 0.357543 -2.871232
2007-03-29 06:14:29 51°19.813 2°37.036 16.1693 0.062415 0.357543 -2.871232
2007-03-29 06:14:34 51°19.82 2°37.022 16.1475 0.062415 0.35755 -2.871232
2007-03-29 06:14:39 51°19.826 2°37.009 16.1511 0.062415 0.357558 -2.871232
2007-03-29 06:14:44 51°19.833 2°36.997 16.1531 0.062415 0.357558 -2.871232
2007-03-29 06:14:49 51°19.84 2°36.987 16.1602 0.062415 0.357558 -2.871232
2007-03-29 06:14:54 51°19.846 2°36.978 16.1382 0.062415 0.357558 -2.871232
2007-03-29 06:14:59 51°19.853 2°36.972 16.1637 0.062415 0.357558 -2.871232
2007-03-29 06:15:04 51°19.86 2°36.966 16.1549 0.062415 0.357558 -2.871232
2007-03-29 06:15:09 51°19.866 2°36.961 16.1766 0.062415 0.357573 -2.871232
2007-03-29 06:15:14 51°19.871 2°36.956 16.1786 0.062415 0.35758 -2.871232
2007-03-29 06:15:19 51°19.877 2°36.952 16.1685 0.062415 0.357595 -2.871232
2007-03-29 06:15:24 51°19.882 2°36.948 16.189 0.062415 0.357602 -2.871232
2007-03-29 06:15:29 51°19.886 2°36.944 16.1867 0.062415 0.357602 -2.871232
2007-03-29 06:15:34 51°19.891 2°36.941 16.184 0.062415 0.35761 -2.871232
2007-03-29 06:15:39 51°19.895 2°36.937 16.1872 0.062415 0.35761 -2.871232
2007-03-29 06:15:44 51°19.9 2°36.934 16.1928 0.062415 0.357617 -2.871232
2007-03-29 06:15:49 51°19.904 2°36.931 16.2042 0.062415 0.357625 -2.871232
2007-03-29 06:15:54 51°19.907 2°36.928 16.2041 0.062415 0.357625 -2.871232
2007-03-29 06:15:59 51°19.911 2°36.924 16.1482 0.062415 0.357625 -2.871232
2007-03-29 06:16:04 51°19.914 2°36.922 16.1628 0.062415 0.357632 -2.871232
2007-03-29 06:16:09 51°19.917 2°36.919 16.1979 0.062415 0.35764 -2.871232
2007-03-29 06:16:14 51°19.92 2°36.916 16.2072 0.062415 0.35764 -2.871232
2007-03-29 06:16:19 51°19.923 2°36.913 16.1593 0.062415 0.357647 -2.871232
2007-03-29 06:16:24 51°19.926 2°36.91 16.174 0.062517 0.358256 -2.871232
2007-03-29 06:16:29 51°19.928 2°36.907 16.1693 0.062517 0.358256 -2.871232
2007-03-29 06:16:34 51°19.93 2°36.904 16.1585 0.062517 0.358256 -2.871232
2007-03-29 06:16:39 51°19.932 2°36.901 16.1663 0.062415 0.357655 -2.871232
2007-03-29 06:16:44 51°19.935 2°36.899 16.1959 0.062415 0.357655 -2.871232
2007-03-29 06:16:49 51°19.937 2°36.896 16.158 0.062415 0.357662 -2.871232
2007-03-29 06:16:54 51°19.939 2°36.894 16.1892 0.062415 0.35767 -2.871232
2007-03-29 06:16:59 51°19.941 2°36.891 16.2034 0.062415 0.35767 -2.871232
2007-03-29 06:17:04 51°19.942 2°36.889 16.1637 0.062415 0.35767 -2.871232
2007-03-29 06:17:09 51°19.944 2°36.886 16.1734 0.062415 0.357677 -2.871232
2007-03-29 06:17:14 51°19.945 2°36.884 16.1814 0.062415 0.357685 -2.871232
2007-03-29 06:17:19 51°19.947 2°36.882 16.2005 0.062415 0.357692 -2.871232
2007-03-29 06:17:24 51°19.948 2°36.879 16.1869 0.062415 0.3577 -2.871232
2007-03-29 06:17:29 51°19.95 2°36.877 16.1887 0.062415 0.3577 -2.871232
2007-03-29 06:17:34 51°19.951 2°36.875 16.1742 0.062415 0.357707 -2.871232
2007-03-29 06:17:39 51°19.952 2°36.873 16.1947 0.062415 0.357707 -2.871232
2007-03-29 06:17:44 51°19.953 2°36.871 16.2044 0.062415 0.357714 -2.871232
2007-03-29 06:17:49 51°19.954 2°36.869 16.2084 0.062415 0.357714 -2.871232
2007-03-29 06:17:54 51°19.956 2°36.867 16.1743 0.062415 0.357722 -2.871232
2007-03-29 06:17:59 51°19.957 2°36.866 16.1587 0.062415 0.357722 -2.871232
2007-03-29 06:18:04 51°19.958 2°36.864 16.17 0.062415 0.357722 -2.871232
2007-03-29 06:18:09 51°19.958 2°36.862 16.2112 0.062415 0.357729 -2.871232
2007-03-29 06:18:14 51°19.959 2°36.861 16.2096 0.062415 0.357729 -2.871232
2007-03-29 06:18:19 51°19.96 2°36.859 16.2021 0.062415 0.357737 -2.871232
2007-03-29 06:18:24 51°19.961 2°36.857 16.1995 0.062415 0.357737 -2.871232
2007-03-29 06:18:29 51°19.961 2°36.856 16.1807 0.062415 0.357737 -2.871232
2007-03-29 06:18:34 51°19.962 2°36.855 16.1969 0.062415 0.357744 -2.871232
2007-03-29 06:18:39 51°19.963 2°36.853 16.2023 0.062415 0.357752 -2.871232
2007-03-29 06:18:45 51°19.963 2°36.851 16.2207 0.062415 0.357752 -2.871232
2007-03-29 06:18:49 51°19.964 2°36.85 16.2009 0.062415 0.357759 -2.871232
2007-03-29 06:18:54 51°19.964 2°36.849 16.1814 0.062415 0.357767 -2.871232
2007-03-29 06:18:59 51°19.965 2°36.847 16.1973 0.062415 0.357767 -2.871232
2007-03-29 06:19:04 51°19.965 2°36.846 16.2182 0.062415 0.357774 -2.871232
2007-03-29 06:19:09 51°19.966 2°36.845 16.2081 0.062415 0.357782 -2.871232
2007-03-29 06:19:14 51°19.966 2°36.844 16.1885 0.062415 0.357782 -2.871232
2007-03-29 06:19:19 51°19.966 2°36.843 16.2086 0.062415 0.357789 -2.871232
2007-03-29 06:19:24 51°19.967 2°36.842 16.213 0.062415 0.357797 -2.871232
2007-03-29 06:19:29 51°19.967 2°36.84 16.2034 0.062415 0.357797 -2.871232
2007-03-29 06:19:34 51°19.967 2°36.839 16.2008 0.062415 0.357797 -2.871232
2007-03-29 06:19:39 51°19.968 2°36.838 16.2094 0.062415 0.357804 -2.871232
2007-03-29 06:19:44 51°19.968 2°36.837 16.211 0.062415 0.357804 -2.871232
2007-03-29 06:19:49 51°19.968 2°36.836 16.2047 0.062415 0.357812 -2.871232
2007-03-29 06:19:54 51°19.968 2°36.835 16.2025 0.062415 0.357819 -2.871232
2007-03-29 06:19:59 51°19.968 2°36.834 16.1935 0.062415 0.357819 -2.871232
2007-03-29 06:20:04 51°19.968 2°36.833 16.2127 0.062415 0.357819 -2.871232
2007-03-29 06:20:09 51°19.968 2°36.832 16.2195 0.062415 0.357827 -2.871232
2007-03-29 06:20:14 51°19.968 2°36.831 16.2179 0.062415 0.357834 -2.871232
2007-03-29 06:20:19 51°19.968 2°36.83 16.2028 0.062415 0.357841 -2.871232
2007-03-29 06:20:24 51°19.968 2°36.829 16.1915 0.062415 0.357841 -2.871232
2007-03-29 06:20:29 51°19.968 2°36.828 16.2026 0.062415 0.357841 -2.871232
2007-03-29 06:20:34 51°19.968 2°36.827 16.2068 0.062415 0.357841 -2.871232
2007-03-29 06:20:39 51°19.968 2°36.827 16.2189 0.062415 0.357849 -2.871232
2007-03-29 06:20:44 51°19.967 2°36.826 16.1869 0.062415 0.357856 -2.871232
2007-03-29 06:20:49 51°19.967 2°36.826 16.1954 0.062415 0.357864 -2.871232
2007-03-29 06:20:54 51°19.967 2°36.825 16.1965 0.062415 0.357864 -2.871232
2007-03-29 06:20:59 51°19.967 2°36.824 16.2129 0.062415 0.357864 -2.871232
2007-03-29 06:21:05 51°19.967 2°36.823 16.2176 0.062415 0.357871 -2.871232
2007-03-29 06:21:09 51°19.966 2°36.823 16.2138 0.062415 0.357879 -2.871232
2007-03-29 06:21:14 51°19.966 2°36.822 16.1938 0.062415 0.357886 -2.871232
2007-03-29 06:21:19 51°19.966 2°36.822 16.1944 0.062415 0.357894 -2.871232
2007-03-29 06:21:24 51°19.965 2°36.821 16.1971 0.062415 0.357894 -2.871232
2007-03-29 06:21:29 51°19.965 2°36.821 16.2285 0.062415 0.357894 -2.871232
2007-03-29 06:21:34 51°19.965 2°36.82 16.2264 0.062415 0.357901 -2.871232
2007-03-29 06:21:39 51°19.964 2°36.82 16.2286 0.062415 0.357909 -2.871232
2007-03-29 06:21:44 51°19.964 2°36.819 16.2316 0.062415 0.357909 -2.871232
2007-03-29 06:21:49 51°19.964 2°36.819 16.2237 0.062415 0.357916 -2.871232
2007-03-29 06:21:54 51°19.963 2°36.819 16.2293 0.062415 0.357924 -2.871232
2007-03-29 06:21:59 51°19.963 2°36.818 16.2103 0.062415 0.357924 -2.871232
2007-03-29 06:22:04 51°19.962 2°36.818 16.2249 0.062415 0.357924 -2.871232
2007-03-29 06:22:09 51°19.962 2°36.818 16.239 0.062415 0.357931 -2.871232
2007-03-29 06:22:14 51°19.962 2°36.817 16.2296 0.062415 0.357939 -2.871232
2007-03-29 06:22:19 51°19.961 2°36.817 16.233 0.062415 0.357946 -2.871232
2007-03-29 06:22:24 51°19.961 2°36.817 16.2367 0.062415 0.357946 -2.871232
2007-03-29 06:22:29 51°19.96 2°36.817 16.241 0.062415 0.357946 -2.871232
2007-03-29 06:22:34 51°19.96 2°36.817 16.2409 0.062415 0.357954 -2.871232
2007-03-29 06:22:39 51°19.959 2°36.816 16.2351 0.062415 0.357961 -2.871232
2007-03-29 06:22:44 51°19.959 2°36.817 16.2486 0.062415 0.357969 -2.871232
2007-03-29 06:22:49 51°19.958 2°36.817 16.2557 0.062415 0.357969 -2.871232
2007-03-29 06:22:54 51°19.958 2°36.816 16.2195 0.062415 0.357976 -2.871232
2007-03-29 06:22:59 51°19.957 2°36.816 16.2234 0.062415 0.357976 -2.871232
2007-03-29 06:23:05 51°19.956 2°36.816 16.2476 0.062415 0.357984 -2.871232
2007-03-29 06:23:09 51°19.956 2°36.816 16.2507 0.062415 0.357984 -2.871232
2007-03-29 06:23:14 51°19.956 2°36.816 16.2502 0.062415 0.357991 -2.871232
2007-03-29 06:23:19 51°19.955 2°36.817 16.252 0.062415 0.357999 -2.871232
2007-03-29 06:23:24 51°19.955 2°36.817 16.2493 0.062415 0.358006 -2.871232
2007-03-29 06:23:29 51°19.954 2°36.817 16.2496 0.062415 0.358006 -2.871232
2007-03-29 06:23:34 51°19.954 2°36.817 16.261 0.062415 0.358013 -2.871232
2007-03-29 06:23:39 51°19.953 2°36.817 16.2581 0.062415 0.358013 -2.871232
2007-03-29 06:23:44 51°19.952 2°36.818 16.2551 0.062415 0.358021 -2.871232
2007-03-29 06:23:49 51°19.951 2°36.818 16.2366 0.062312 0.357419 -2.871232
2007-03-29 06:23:54 51°19.951 2°36.818 16.2351 0.062415 0.358028 -2.871232
2007-03-29 06:23:59 51°19.95 2°36.818 16.2646 0.062415 0.358028 -2.871232
2007-03-29 06:24:04 51°19.95 2°36.818 16.2582 0.062415 0.358036 -2.871232
2007-03-29 06:24:09 51°19.949 2°36.818 16.2366 0.062415 0.358043 -2.871232
2007-03-29 06:24:14 51°19.948 2°36.818 16.2393 0.062312 0.357434 -2.871232
2007-03-29 06:24:19 51°19.947 2°36.819 16.2348 0.062415 0.358051 -2.871232
2007-03-29 06:24:24 51°19.947 2°36.819 16.2553 0.062415 0.358058 -2.871232
2007-03-29 06:24:29 51°19.946 2°36.819 16.2495 0.062415 0.358058 -2.871232
2007-03-29 06:24:34 51°19.945 2°36.819 16.2732 0.062415 0.358058 -2.871232
2007-03-29 06:24:39 51°19.944 2°36.819 16.273 0.062312 0.357456 -2.871232
2007-03-29 06:24:44 51°19.944 2°36.819 16.2622 0.062312 0.357464 -2.871232
2007-03-29 06:24:49 51°19.943 2°36.82 16.2627 0.062415 0.358081 -2.871232
2007-03-29 06:24:54 51°19.942 2°36.82 16.2533 0.062415 0.358088 -2.871232
2007-03-29 06:24:59 51°19.941 2°36.821 16.2521 0.062415 0.358088 -2.871232
2007-03-29 06:25:04 51°19.941 2°36.821 16.2625 0.062415 0.358088 -2.871232